GFSNE_prec_sndepth_003.txt.gz
Snowfall_Accumulation
0.0 0.0 0.0 0.0 0.0 0.0 0.0 0.0 0.0 0.0 0.0 0.0 0.0 0.0 0.0 0.0 0.0 0.0 0.0 nan nan nan nan nan nan nan nan nan nan nan nan nan nan nan nan nan nan nan
0.0 0.0 0.0 0.0 0.0 0.0 0.0 0.0 0.0 0.0 0.0 0.0 0.0 0.0 0.0 0.0 0.0 0.0 0.0 nan nan nan nan nan nan nan nan nan nan nan nan nan nan nan nan nan nan nan
0.0 0.0 0.0 0.0 0.0 0.0 0.0 0.0 0.0 0.0 0.0 0.0 0.0 0.0 0.0 0.0 0.0 0.0 0.0 0.0 0.0 nan nan nan nan nan nan nan nan nan nan nan nan nan nan nan nan nan
0.0 0.0 0.0 0.0 0.0 0.0 0.0 0.0 0.0 0.0 0.0 0.0 0.0 0.0 0.0 0.0 0.0 0.0 0.0 0.0 0.0 nan nan nan nan nan nan nan nan nan nan nan nan nan nan nan nan nan
0.0 0.0 0.0 0.0 0.0 0.0 0.0 0.0 0.0 0.0 0.0 0.0 0.0 0.0 0.0 0.0 0.0 0.0 0.0 0.0 0.0 nan nan nan nan nan nan nan nan nan nan nan nan nan nan nan nan nan
0.0 0.0 0.0 0.0 0.0 0.0 0.0 0.0 0.0 0.0 0.0 0.0 0.0 0.0 0.0 0.0 0.0 0.0 0.0 0.0 0.0 0.0 nan nan nan nan nan nan nan nan nan nan nan nan nan nan nan nan
0.0 0.0 0.0 nan nan nan 0.0 0.0 0.0 0.0 0.0 0.0 0.0 0.0 0.0 0.0 0.0 0.0 0.0 0.0 0.0 0.0 0.0 0.0 0.0 0.0 0.0 nan nan nan nan nan nan nan nan nan nan nan
0.0 0.0 0.0 0.0 0.0 nan nan nan nan 0.0 0.0 0.0 0.0 0.0 0.0 0.0 0.0 0.0 0.0 0.0 0.3 0.2 0.2 0.6 0.0 0.0 0.0 0.0 nan nan nan nan nan nan nan nan nan nan
0.0 0.0 0.0 0.0 nan 0.0 nan nan nan nan 0.0 0.0 0.0 0.0 0.0 0.0 0.0 0.0 0.1 0.2 0.2 0.1 0.3 1.1 1.1 0.8 0.3 0.0 nan nan nan nan nan nan nan nan nan nan
0.0 0.0 0.0 0.0 0.0 0.0 0.0 0.0 0.0 0.0 0.0 0.0 0.0 0.0 0.0 0.0 0.0 0.0 0.0 0.0 0.5 0.0 0.1 3.5 2.2 3.2 1.7 0.6 nan nan nan nan nan nan nan nan nan nan
0.1 0.0 0.0 0.1 nan nan 0.5 1.3 0.3 0.0 nan nan nan nan nan nan nan 0.7 2.5 2.4 7.3 0.5 0.5 1.3 3.1 3.9 2.8 3.0 2.2 nan nan nan nan nan nan nan nan nan
0.9 0.5 nan 0.0 nan nan 1.1 1.1 1.2 0.2 0.0 0.0 0.0 0.0 nan nan nan 0.0 0.5 2.3 2.6 3.5 0.9 1.9 0.7 2.0 4.7 4.6 2.9 2.9 2.3 nan nan nan nan nan nan 0.6
2.1 1.9 1.7 nan nan nan nan 1.8 1.2 0.0 0.2 0.4 0.1 0.1 0.0 0.0 0.0 0.0 0.0 0.5 2.0 1.3 0.0 0.2 1.1 1.4 2.5 3.9 4.0 3.5 2.8 4.0 2.9 1.8 nan nan nan 0.6
2.6 2.1 1.5 nan nan nan 0.9 nan nan 1.0 5.7 4.7 3.4 2.3 1.9 1.8 0.0 0.0 0.0 0.0 0.0 0.3 0.0 0.2 3.2 1.2 2.0 4.0 3.6 4.4 4.6 5.0 3.7 4.4 4.2 nan nan nan
3.8 3.0 nan nan nan 1.4 nan nan 0.7 4.9 5.3 6.2 3.7 2.0 1.3 0.3 0.0 0.9 1.2 0.2 0.3 1.9 0.8 1.2 1.7 1.0 1.9 3.2 3.8 5.3 6.0 5.8 6.6 6.8 6.7 4.7 4.1 3.0
1.0 3.2 0.7 2.5 0.9 1.3 2.6 3.5 4.0 4.7 4.4 4.0 2.8 1.5 1.5 2.4 2.5 1.6 2.8 3.6 4.3 4.3 3.9 2.2 1.4 1.4 3.7 2.3 1.8 5.0 4.4 7.1 5.3 6.2 7.4 8.0 5.4 4.5
3.6 7.5 4.4 3.3 3.2 2.9 3.8 3.5 3.3 3.3 3.9 4.8 4.3 3.2 2.7 2.5 3.5 3.7 3.1 3.6 5.7 4.4 3.3 3.2 3.0 3.2 2.6 2.9 6.9 2.9 3.8 3.5 3.9 6.5 6.9 6.6 6.4 6.9
3.7 5.6 11.3 12.5 7.5 3.5 5.3 4.7 4.5 3.4 3.2 3.9 5.8 3.9 3.7 4.2 4.4 5.7 4.7 5.6 6.1 4.9 4.0 2.8 2.9 3.2 2.8 5.4 2.5 2.5 2.2 3.0 3.5 5.3 5.6 7.1 4.5 4.8
5.9 6.1 14.0 16.4 10.0 3.7 4.1 3.9 5.1 4.8 2.5 4.1 5.2 6.2 6.4 5.1 6.5 6.5 7.7 6.9 7.5 4.5 3.0 4.7 4.7 4.1 4.6 8.0 3.6 nan 4.0 3.1 8.9 9.6 6.2 5.9 5.3 4.5
3.1 5.9 9.4 10.5 5.3 3.6 3.8 4.8 5.5 7.3 7.5 5.9 7.7 10.5 12.0 8.5 8.7 5.9 5.7 9.2 7.0 4.7 4.2 2.5 3.5 3.9 4.1 9.5 16.4 13.8 nan 10.9 9.9 10.4 7.0 6.4 4.7 nan
3.3 3.0 7.5 5.0 5.5 4.3 13.4 14.4 17.6 16.1 16.4 19.3 11.0 10.8 22.4 6.5 8.1 6.3 7.3 6.3 5.8 3.9 4.0 3.7 4.0 0.9 3.8 10.4 30.5 16.3 15.2 nan 8.2 8.1 6.7 7.1 4.2 3.2
6.9 4.1 4.6 4.8 7.9 7.6 16.1 24.1 22.3 22.0 15.9 11.5 21.1 29.3 26.9 12.8 11.0 9.5 12.3 12.4 5.8 7.1 4.2 3.6 2.8 1.7 6.1 4.8 5.5 20.9 9.5 10.6 nan nan nan nan 6.3 5.5
14.3 5.5 8.5 10.7 8.8 10.8 6.2 13.3 6.3 28.9 11.7 11.7 11.1 11.7 48.7 15.4 9.3 9.9 11.2 8.4 6.1 6.6 5.1 5.0 3.2 2.6 3.4 3.2 5.4 8.6 7.3 13.2 6.2 5.3 11.9 nan nan nan

GFSNE_prec_sndepth_006.txt.gz
Snowfall_Accumulation
0.0 0.0 0.0 0.0 0.0 0.0 0.0 0.0 0.0 0.0 0.0 0.0 0.0 0.0 0.0 0.0 0.0 0.0 0.0 nan nan nan nan nan nan nan nan nan nan nan nan nan nan nan nan nan nan nan
0.0 0.0 0.0 0.0 0.0 0.0 0.0 0.0 0.0 0.0 0.0 0.0 0.0 0.0 0.0 0.0 0.0 0.0 0.0 nan nan nan nan nan nan nan nan nan nan nan nan nan nan nan nan nan nan nan
0.0 0.0 0.0 0.0 0.0 0.0 0.0 0.0 0.0 0.0 0.0 0.0 0.0 0.0 0.0 0.0 0.0 0.0 0.0 0.0 0.0 nan nan nan nan nan nan nan nan nan nan nan nan nan nan nan nan nan
0.0 0.0 0.0 0.0 0.0 0.0 0.0 0.0 0.0 0.0 0.0 0.0 0.0 0.0 0.0 0.0 0.0 0.0 0.0 0.0 0.0 nan nan nan nan nan nan nan nan nan nan nan nan nan nan nan nan nan
0.0 0.0 0.0 0.0 0.0 0.0 0.0 0.0 0.0 0.0 0.0 0.0 0.0 0.0 0.0 0.0 0.0 0.0 0.0 0.0 0.0 nan nan nan nan nan nan nan nan nan nan nan nan nan nan nan nan nan
0.0 0.0 0.0 0.0 0.0 0.0 0.0 0.0 0.0 0.0 0.0 0.0 0.0 0.0 0.0 0.0 0.0 0.0 0.0 0.0 0.0 0.0 nan nan nan nan nan nan nan nan nan nan nan nan nan nan nan nan
0.0 0.0 0.0 nan nan nan 0.0 0.0 0.0 0.0 0.0 0.0 0.0 0.0 0.0 0.0 0.0 0.0 0.0 0.0 0.0 0.0 0.0 0.0 0.0 0.0 0.0 nan nan nan nan nan nan nan nan nan nan nan
0.0 0.0 0.0 0.0 0.0 nan nan nan nan 0.0 0.0 0.0 0.0 0.0 0.0 0.0 0.0 0.0 0.0 0.0 0.3 0.2 0.2 0.6 0.0 0.0 0.0 0.0 nan nan nan nan nan nan nan nan nan nan
0.0 0.0 0.0 0.0 nan 0.0 nan nan nan nan 0.0 0.0 0.1 0.0 0.0 0.0 0.0 0.1 0.1 0.2 0.2 0.1 0.3 1.1 1.1 0.8 0.3 0.0 nan nan nan nan nan nan nan nan nan nan
0.0 0.0 0.0 0.0 0.0 0.0 0.0 0.0 0.0 0.0 0.0 0.0 0.0 0.0 0.0 0.0 0.0 0.0 0.0 0.0 0.5 0.0 0.1 3.6 2.2 3.2 1.6 0.6 nan nan nan nan nan nan nan nan nan nan
0.1 0.0 0.0 0.1 nan nan 0.5 1.4 0.3 0.0 nan nan nan nan nan nan nan 0.7 2.7 2.7 7.4 0.5 0.5 1.3 3.1 3.9 2.8 3.0 2.1 nan nan nan nan nan nan nan nan nan
0.9 0.4 nan 0.0 nan nan 1.1 1.3 1.4 0.2 0.0 0.0 0.0 0.0 nan nan nan 0.0 0.6 2.7 2.7 3.5 0.9 1.9 0.7 2.0 4.7 4.6 2.9 2.9 2.3 nan nan nan nan nan nan 0.5
2.1 1.9 1.7 nan nan nan nan 2.1 1.3 0.1 0.4 0.6 0.1 0.1 0.0 0.0 0.0 0.0 0.0 0.6 2.3 1.5 0.0 0.2 1.1 1.4 2.5 3.9 4.0 3.5 2.8 4.0 2.9 1.8 nan nan nan 0.6
2.6 2.1 1.6 nan nan nan 0.9 nan nan 1.0 5.7 4.8 3.5 2.4 2.0 1.8 0.0 0.0 0.0 0.0 0.0 0.3 0.0 0.2 3.2 1.2 2.0 4.0 3.6 4.4 4.6 5.0 3.7 4.4 4.2 nan nan nan
4.1 3.2 nan nan nan 1.4 nan nan 0.7 5.0 5.4 6.3 3.7 2.0 1.3 0.3 0.1 1.0 1.2 0.2 0.3 1.9 0.8 1.1 1.7 1.0 1.9 3.2 3.9 5.3 6.0 5.8 6.6 6.8 6.7 4.7 4.1 3.0
1.0 3.3 0.7 2.5 0.9 1.3 2.6 3.5 4.1 4.8 4.5 4.1 2.9 1.6 1.6 2.6 2.7 1.7 3.1 3.7 4.6 4.4 3.6 2.0 1.3 1.5 4.1 2.3 1.8 5.0 4.4 7.1 5.3 6.2 7.4 8.0 5.4 4.5
3.7 7.5 4.4 3.3 3.2 2.9 3.8 3.6 3.3 3.4 4.1 5.0 4.5 3.3 2.8 2.6 3.6 3.9 3.3 3.9 6.2 4.5 3.3 3.2 2.9 3.2 2.9 3.2 7.1 2.9 3.8 3.5 3.9 6.5 6.9 6.5 6.4 6.9
3.8 5.8 11.4 12.5 7.6 3.6 5.3 4.7 4.5 3.4 3.3 4.0 5.9 4.0 3.7 4.2 4.4 5.7 4.8 5.7 6.1 4.9 4.1 2.9 3.3 4.0 3.3 5.8 2.7 2.6 2.2 3.1 3.5 5.4 5.6 7.1 4.5 4.8
6.2 6.4 14.2 16.5 10.1 3.8 4.1 3.9 5.2 4.9 2.7 4.3 5.3 6.3 6.5 5.2 6.6 6.6 7.8 7.1 7.7 4.9 3.4 5.1 5.2 4.5 4.7 8.1 3.7 nan 4.2 3.3 9.0 9.7 6.3 5.9 5.3 4.5
3.4 6.2 9.6 10.7 5.5 3.7 3.9 4.9 5.5 7.3 7.6 6.0 7.8 10.7 12.1 8.5 8.8 6.0 5.8 9.4 7.2 4.9 4.3 2.6 3.6 4.0 4.1 9.6 16.9 14.5 nan 11.4 10.2 10.6 7.1 6.4 4.8 nan
3.6 3.3 7.8 5.3 5.7 4.3 13.4 14.4 17.5 16.2 16.4 19.3 11.1 10.8 22.3 6.5 8.2 6.3 7.3 6.3 5.8 3.9 4.0 3.7 4.0 0.9 3.8 10.4 30.4 16.3 15.3 nan 8.3 8.2 6.8 7.1 4.2 3.2
7.3 4.5 4.8 5.1 8.2 7.7 16.1 24.0 22.2 22.0 15.8 11.5 21.0 29.2 26.8 12.8 11.0 9.5 12.3 12.4 5.8 7.1 4.3 3.7 2.9 1.7 6.1 4.8 5.7 21.1 9.9 10.9 nan nan nan nan 6.3 5.4
14.6 5.9 8.7 10.8 8.9 10.9 6.2 13.3 6.4 28.7 11.7 11.7 11.1 11.7 48.2 15.4 9.3 10.0 11.2 8.4 6.1 6.6 5.1 5.0 3.2 2.6 3.4 3.2 5.4 8.7 7.6 13.5 6.4 5.4 11.9 nan nan nan

GFSNE_prec_sndepth_009.txt.gz
Snowfall_Accumulation
0.0 0.0 0.0 0.0 0.0 0.0 0.0 0.0 0.0 0.0 0.0 0.0 0.0 0.0 0.0 0.0 0.0 0.0 0.0 nan nan nan nan nan nan nan nan nan nan nan nan nan nan nan nan nan nan nan
0.0 0.0 0.0 0.0 0.0 0.0 0.0 0.0 0.0 0.0 0.0 0.0 0.0 0.0 0.0 0.0 0.0 0.0 0.0 nan nan nan nan nan nan nan nan nan nan nan nan nan nan nan nan nan nan nan
0.0 0.0 0.0 0.0 0.0 0.0 0.0 0.0 0.0 0.0 0.0 0.0 0.0 0.0 0.0 0.0 0.0 0.0 0.0 0.0 0.0 nan nan nan nan nan nan nan nan nan nan nan nan nan nan nan nan nan
0.0 0.0 0.0 0.0 0.0 0.0 0.0 0.0 0.0 0.0 0.0 0.0 0.0 0.0 0.0 0.0 0.0 0.0 0.0 0.0 0.0 nan nan nan nan nan nan nan nan nan nan nan nan nan nan nan nan nan
0.0 0.0 0.0 0.0 0.0 0.0 0.0 0.0 0.0 0.0 0.0 0.0 0.0 0.0 0.0 0.0 0.0 0.0 0.0 0.0 0.0 nan nan nan nan nan nan nan nan nan nan nan nan nan nan nan nan nan
0.0 0.0 0.0 0.0 0.0 0.0 0.0 0.0 0.0 0.0 0.0 0.0 0.0 0.0 0.0 0.0 0.0 0.0 0.0 0.0 0.0 0.0 nan nan nan nan nan nan nan nan nan nan nan nan nan nan nan nan
0.0 0.0 0.0 nan nan nan 0.0 0.0 0.0 0.0 0.0 0.0 0.0 0.0 0.0 0.0 0.0 0.0 0.0 0.0 0.0 0.0 0.0 0.0 0.0 0.0 0.0 nan nan nan nan nan nan nan nan nan nan nan
0.0 0.0 0.0 0.0 0.0 nan nan nan nan 0.0 0.0 0.0 0.0 0.0 0.0 0.0 0.0 0.0 0.0 0.0 0.2 0.1 0.1 0.5 0.0 0.0 0.0 0.0 nan nan nan nan nan nan nan nan nan nan
0.0 0.0 0.0 0.0 nan 0.0 nan nan nan nan 0.0 0.0 0.2 0.0 0.0 0.0 0.0 0.0 0.1 0.1 0.1 0.1 0.2 0.9 0.9 0.7 0.3 0.0 nan nan nan nan nan nan nan nan nan nan
0.0 0.0 0.0 0.0 0.0 0.0 0.0 0.0 0.0 0.0 0.0 0.0 0.0 0.0 0.0 0.0 0.0 0.0 0.0 0.0 0.4 0.0 0.1 3.5 1.8 2.7 1.3 0.5 nan nan nan nan nan nan nan nan nan nan
0.1 0.0 0.0 0.1 nan nan 0.4 1.4 0.3 0.0 nan nan nan nan nan nan nan 0.6 2.7 2.7 7.0 0.5 0.4 1.1 2.5 3.2 2.3 2.3 1.6 nan nan nan nan nan nan nan nan nan
0.8 0.3 nan 0.0 nan nan 1.1 1.4 1.6 0.2 0.0 0.0 0.0 0.0 nan nan nan 0.1 0.6 2.6 2.5 3.2 0.8 1.6 0.6 1.6 4.0 3.6 2.2 2.2 1.7 nan nan nan nan nan nan 0.5
2.0 1.8 1.6 nan nan nan nan 2.0 1.3 0.1 0.4 0.6 0.1 0.1 0.0 0.0 0.0 0.0 0.1 0.7 2.2 1.4 0.0 0.1 0.9 1.1 2.1 3.1 3.3 2.7 2.2 3.3 2.4 1.5 nan nan nan 0.5
2.6 2.1 1.7 nan nan nan 0.9 nan nan 1.0 5.7 4.7 3.5 2.3 1.8 1.7 0.0 0.0 0.0 0.0 0.0 0.2 0.0 0.1 2.7 1.0 1.6 3.2 3.1 3.5 3.7 4.2 3.2 3.8 3.4 nan nan nan
4.6 3.3 nan nan nan 1.4 nan nan 0.8 5.0 5.4 6.2 3.6 1.9 1.2 0.3 0.1 0.9 0.9 0.2 0.3 1.4 0.5 0.8 1.5 0.7 1.6 2.7 3.1 4.2 4.6 4.7 5.7 5.7 5.4 3.7 3.2 2.4
1.2 3.4 0.7 2.5 0.9 1.3 2.6 3.5 4.1 4.9 4.6 4.1 2.9 1.6 1.5 2.5 2.6 1.6 2.8 3.3 4.3 3.9 2.9 1.8 1.2 1.3 3.9 2.0 1.5 4.1 3.5 5.6 4.4 5.0 5.8 6.5 4.3 3.5
3.9 7.7 4.5 3.3 3.2 2.9 3.8 3.5 3.3 3.4 4.1 5.1 4.5 3.2 2.6 2.4 3.3 3.5 3.0 3.4 5.7 4.0 3.0 2.7 2.3 2.9 2.7 2.6 6.5 2.4 3.0 2.8 3.1 5.1 5.6 5.1 4.9 5.4
4.1 6.0 11.6 12.5 7.5 3.6 5.3 4.6 4.5 3.4 3.3 4.0 5.9 3.9 3.6 3.9 4.0 5.1 4.3 5.1 5.5 4.4 3.6 2.5 3.0 4.0 3.4 5.4 2.5 2.2 1.8 2.6 2.8 4.3 4.6 5.9 3.5 3.7
6.5 6.6 14.3 16.6 10.1 3.8 4.1 4.0 5.2 4.9 2.8 4.3 5.4 6.4 6.6 5.0 6.1 5.9 7.1 6.4 7.0 4.5 3.1 4.6 4.7 4.2 4.6 8.1 3.4 nan 3.9 2.8 7.8 8.6 5.4 5.1 4.3 3.6
3.7 6.5 9.9 10.9 5.6 3.8 3.9 4.8 5.4 7.3 7.5 6.0 7.9 10.7 12.1 8.5 8.4 5.8 5.4 8.4 6.2 4.3 3.8 2.3 3.3 3.6 3.8 8.8 15.5 13.1 nan 10.3 9.3 9.9 6.8 5.7 4.3 nan
3.9 3.5 8.1 5.5 5.9 4.5 13.5 14.4 17.5 16.1 16.3 19.2 11.0 10.8 22.2 6.5 8.1 6.2 6.9 6.1 5.4 3.4 3.6 3.4 3.7 0.9 3.4 9.3 29.1 15.2 14.6 nan 7.5 7.4 6.5 6.7 3.8 2.8
7.6 4.7 5.1 5.3 8.3 7.8 16.1 23.9 22.0 21.8 15.7 11.4 20.9 28.9 26.6 12.7 10.9 9.4 12.1 11.7 5.4 6.6 4.0 3.4 2.6 1.6 5.5 4.3 5.2 20.2 9.2 10.1 nan nan nan nan 5.6 4.8
14.5 5.9 8.7 10.8 8.9 10.8 6.2 13.2 6.3 28.4 11.7 11.7 11.1 11.6 47.5 15.3 9.2 9.8 10.8 8.1 5.8 6.3 4.7 4.5 2.9 2.4 3.2 3.0 5.1 8.4 7.6 13.1 6.1 5.1 11.3 nan nan nan

GFSNE_prec_sndepth_012.txt.gz
Snowfall_Accumulation
0.0 0.0 0.0 0.0 0.0 0.0 0.0 0.0 0.0 0.0 0.0 0.0 0.0 0.0 0.0 0.0 0.0 0.0 0.0 nan nan nan nan nan nan nan nan nan nan nan nan nan nan nan nan nan nan nan
0.0 0.0 0.0 0.0 0.0 0.0 0.0 0.0 0.0 0.0 0.0 0.0 0.0 0.0 0.0 0.0 0.0 0.0 0.0 nan nan nan nan nan nan nan nan nan nan nan nan nan nan nan nan nan nan nan
0.0 0.0 0.0 0.0 0.0 0.0 0.0 0.0 0.0 0.0 0.0 0.0 0.0 0.0 0.0 0.0 0.0 0.0 0.0 0.0 0.0 nan nan nan nan nan nan nan nan nan nan nan nan nan nan nan nan nan
0.0 0.0 0.0 0.0 0.0 0.0 0.0 0.0 0.0 0.0 0.0 0.0 0.0 0.0 0.0 0.0 0.0 0.0 0.0 0.0 0.0 nan nan nan nan nan nan nan nan nan nan nan nan nan nan nan nan nan
0.0 0.0 0.0 0.0 0.0 0.0 0.0 0.0 0.0 0.0 0.0 0.0 0.0 0.0 0.0 0.0 0.0 0.0 0.0 0.0 0.0 nan nan nan nan nan nan nan nan nan nan nan nan nan nan nan nan nan
0.0 0.0 0.0 0.0 0.0 0.0 0.0 0.0 0.0 0.0 0.0 0.0 0.0 0.0 0.0 0.0 0.0 0.0 0.0 0.0 0.0 0.0 nan nan nan nan nan nan nan nan nan nan nan nan nan nan nan nan
0.0 0.0 0.0 nan nan nan 0.0 0.0 0.0 0.0 0.0 0.0 0.0 0.0 0.0 0.0 0.0 0.0 0.0 0.0 0.0 0.0 0.0 0.0 0.0 0.0 0.0 nan nan nan nan nan nan nan nan nan nan nan
0.0 0.0 0.0 0.0 0.0 nan nan nan nan 0.0 0.0 0.0 0.0 0.0 0.0 0.0 0.0 0.0 0.0 0.0 0.2 0.1 0.1 0.4 0.0 0.0 0.0 0.0 nan nan nan nan nan nan nan nan nan nan
0.0 0.0 0.0 0.0 nan 0.0 nan nan nan nan 0.0 0.0 0.1 0.0 0.0 0.0 0.0 0.0 0.1 0.1 0.1 0.0 0.2 0.7 0.7 0.5 0.2 0.0 nan nan nan nan nan nan nan nan nan nan
0.0 0.0 0.0 0.0 0.0 0.0 0.0 0.0 0.0 0.0 0.0 0.0 0.0 0.0 0.0 0.0 0.0 0.0 0.0 0.0 0.3 0.0 0.0 3.0 1.4 2.0 1.0 0.4 nan nan nan nan nan nan nan nan nan nan
0.0 0.0 0.0 0.0 nan nan 0.3 0.9 0.2 0.0 nan nan nan nan nan nan nan 0.5 2.3 2.2 5.6 0.4 0.3 0.9 1.9 2.3 1.7 1.6 1.1 nan nan nan nan nan nan nan nan nan
0.5 0.2 nan 0.0 nan nan 0.8 0.9 1.1 0.1 0.0 0.0 0.0 0.0 nan nan nan 0.0 0.5 2.3 2.0 2.5 0.6 1.3 0.5 1.3 3.2 2.4 1.5 1.6 1.2 nan nan nan nan nan nan 0.4
1.7 1.5 1.2 nan nan nan nan 1.5 1.0 0.0 0.2 0.5 0.1 0.1 0.0 0.0 0.0 0.0 0.0 0.6 1.8 1.1 0.0 0.1 0.7 0.9 1.6 2.3 2.4 2.0 1.6 2.5 1.7 1.1 nan nan nan 0.4
2.1 1.7 1.5 nan nan nan 0.7 nan nan 0.7 5.0 4.1 3.0 2.0 1.6 1.4 0.0 0.0 0.0 0.0 0.0 0.2 0.0 0.1 2.0 0.8 1.3 2.4 2.3 2.5 2.6 3.1 2.6 2.9 2.5 nan nan nan
4.0 3.0 nan nan nan 1.3 nan nan 0.5 4.4 4.8 5.7 3.2 1.6 1.0 0.2 0.1 0.7 0.4 0.1 0.1 0.6 0.2 0.4 1.2 0.4 1.3 2.0 2.4 3.2 3.4 3.3 4.3 4.7 4.4 2.7 2.2 1.7
1.0 3.1 0.6 2.3 0.8 1.1 2.1 3.0 3.5 4.3 4.2 3.7 2.5 1.3 1.3 2.1 2.2 1.3 2.3 2.6 3.6 3.1 1.8 0.9 0.7 0.7 3.1 1.6 1.1 3.0 2.6 4.3 3.4 3.7 4.5 4.9 3.1 2.5
4.0 7.4 4.6 3.5 3.0 2.5 3.3 3.1 2.9 2.9 3.6 4.5 4.0 2.8 2.2 2.0 2.7 2.8 2.4 2.7 4.6 3.2 2.4 2.1 1.4 2.2 2.2 1.9 5.5 1.8 2.2 2.1 2.3 3.7 4.3 3.5 3.5 3.8
4.2 6.2 11.9 12.8 7.6 3.4 5.1 4.4 4.3 3.2 3.1 3.6 5.2 3.4 3.1 3.3 3.3 4.2 3.5 4.0 4.4 3.4 2.8 1.9 2.3 3.3 2.9 4.5 2.1 1.8 1.5 2.0 2.1 2.9 3.5 4.7 2.4 2.7
6.7 6.9 14.5 16.7 10.2 3.8 4.1 3.9 5.2 4.8 2.7 4.0 4.8 5.7 5.8 4.2 5.1 5.0 6.1 5.3 5.6 3.5 2.5 3.7 3.8 3.5 3.9 7.4 2.9 nan 3.2 2.3 6.0 6.7 4.2 4.2 3.3 2.7
3.9 6.7 10.1 11.0 5.7 3.8 3.9 4.8 5.4 7.2 7.4 5.9 7.6 10.6 11.9 7.8 7.1 4.8 4.5 7.0 5.1 3.3 3.0 1.9 2.8 3.0 3.2 7.4 13.1 11.2 nan 8.6 7.7 8.1 5.6 4.7 3.6 nan
4.2 3.7 8.3 5.6 5.9 4.5 13.4 14.3 17.3 15.9 16.1 19.0 10.9 10.6 21.9 6.0 7.1 5.3 5.8 5.0 4.4 2.7 2.9 2.8 3.0 0.5 2.6 7.2 24.9 12.8 12.6 nan 6.0 5.7 4.7 5.6 3.2 2.3
7.6 4.8 5.1 5.3 8.3 7.7 15.9 23.6 21.6 21.5 15.5 11.3 20.6 28.5 26.2 12.4 10.3 8.4 10.8 10.7 4.6 5.6 3.3 2.8 2.0 1.3 4.4 3.5 4.3 17.0 7.6 8.5 nan nan nan nan 4.9 4.4
14.3 5.8 8.6 10.7 8.8 10.7 6.1 13.1 6.2 27.9 11.5 11.6 11.0 11.5 46.6 15.1 8.9 9.0 9.6 6.8 4.8 5.3 3.9 3.7 2.3 1.9 2.6 2.4 4.0 6.8 6.1 10.9 5.0 4.2 9.8 nan nan nan

GFSNE_prec_sndepth_015.txt.gz
Snowfall_Accumulation
0.0 0.0 0.0 0.0 0.0 0.0 0.0 0.0 0.0 0.0 0.0 0.0 0.0 0.0 0.0 0.0 0.0 0.0 0.0 nan nan nan nan nan nan nan nan nan nan nan nan nan nan nan nan nan nan nan
0.0 0.0 0.0 0.0 0.0 0.0 0.0 0.0 0.0 0.0 0.0 0.0 0.0 0.0 0.0 0.0 0.0 0.0 0.0 nan nan nan nan nan nan nan nan nan nan nan nan nan nan nan nan nan nan nan
0.0 0.0 0.0 0.0 0.0 0.0 0.0 0.0 0.0 0.0 0.0 0.0 0.0 0.0 0.0 0.0 0.0 0.0 0.0 0.0 0.0 nan nan nan nan nan nan nan nan nan nan nan nan nan nan nan nan nan
0.0 0.0 0.0 0.0 0.0 0.0 0.0 0.0 0.0 0.0 0.0 0.0 0.0 0.0 0.0 0.0 0.0 0.0 0.0 0.0 0.0 nan nan nan nan nan nan nan nan nan nan nan nan nan nan nan nan nan
0.0 0.0 0.0 0.0 0.0 0.0 0.0 0.0 0.0 0.0 0.0 0.0 0.0 0.0 0.0 0.0 0.0 0.0 0.0 0.0 0.0 nan nan nan nan nan nan nan nan nan nan nan nan nan nan nan nan nan
0.0 0.0 0.0 0.0 0.0 0.0 0.0 0.0 0.0 0.0 0.0 0.0 0.0 0.0 0.0 0.0 0.0 0.0 0.0 0.0 0.0 0.0 nan nan nan nan nan nan nan nan nan nan nan nan nan nan nan nan
0.0 0.0 0.0 nan nan nan 0.0 0.0 0.0 0.0 0.0 0.0 0.0 0.0 0.0 0.0 0.0 0.0 0.0 0.0 0.0 0.0 0.0 0.0 0.0 0.0 0.0 nan nan nan nan nan nan nan nan nan nan nan
0.0 0.0 0.0 0.0 0.0 nan nan nan nan 0.0 0.0 0.0 0.0 0.0 0.0 0.0 0.0 0.0 0.0 0.0 0.2 0.1 0.0 0.3 0.0 0.0 0.0 0.0 nan nan nan nan nan nan nan nan nan nan
0.0 0.0 0.0 0.0 nan 0.0 nan nan nan nan 0.0 0.0 0.1 0.0 0.0 0.0 0.0 0.0 0.0 0.0 0.0 0.0 0.1 0.6 0.5 0.4 0.1 0.0 nan nan nan nan nan nan nan nan nan nan
0.0 0.0 0.0 0.0 0.0 0.0 0.0 0.0 0.0 0.0 0.0 0.0 0.1 0.0 0.0 0.0 0.0 0.0 0.0 0.0 0.2 0.0 0.0 2.4 1.0 1.4 0.8 0.3 nan nan nan nan nan nan nan nan nan nan
0.0 0.0 0.0 0.0 nan nan 0.2 0.6 0.1 0.0 nan nan nan nan nan nan nan 0.4 2.0 2.0 4.7 0.3 0.3 0.8 1.5 1.7 1.2 1.2 0.8 nan nan nan nan nan nan nan nan nan
0.3 0.1 nan 0.0 nan nan 0.6 0.7 0.9 0.1 0.0 0.0 0.0 0.0 nan nan nan 0.0 0.4 1.9 1.7 2.1 0.5 1.0 0.4 1.0 2.7 1.6 1.1 1.1 0.8 nan nan nan nan nan nan 0.3
1.5 1.2 0.9 nan nan nan nan 1.1 0.8 0.0 0.2 0.4 0.1 0.0 0.0 0.0 0.0 0.0 0.0 0.5 1.5 0.9 0.0 0.2 0.7 0.7 1.2 1.7 1.8 1.5 1.2 1.9 1.3 0.8 nan nan nan 0.3
1.7 1.4 1.5 nan nan nan 0.6 nan nan 0.6 4.4 3.6 2.7 1.7 1.4 1.1 0.0 0.0 0.0 0.0 0.0 0.1 0.0 0.1 1.7 0.6 1.0 1.9 1.8 1.8 1.9 2.3 2.0 2.3 1.9 nan nan nan
3.5 2.6 nan nan nan 1.2 nan nan 0.4 3.9 4.2 5.1 2.8 1.4 0.9 0.2 0.1 0.6 0.2 0.1 0.1 0.3 0.1 0.2 1.0 0.3 1.1 1.6 1.9 2.5 2.8 2.5 3.4 3.9 3.7 2.2 1.8 1.3
0.9 2.9 0.5 2.2 0.7 1.1 1.9 2.5 3.0 3.7 3.7 3.3 2.2 1.1 1.0 1.7 1.8 1.1 1.9 2.2 2.9 2.5 1.1 0.5 0.3 0.4 2.5 1.3 0.9 2.3 2.0 3.4 2.6 3.0 3.8 4.3 2.6 2.0
4.1 7.3 4.5 3.7 3.4 2.4 2.9 2.7 2.5 2.5 3.2 4.1 3.5 2.5 1.9 1.7 2.2 2.2 1.9 2.2 3.9 2.6 2.0 1.7 0.7 1.3 1.6 1.1 4.6 1.5 1.8 1.7 1.7 2.9 3.3 2.8 2.7 3.0
4.4 6.4 12.1 13.1 7.9 3.6 5.1 4.2 4.0 2.9 2.7 3.1 4.5 2.9 2.8 3.0 2.8 3.4 2.8 3.1 3.6 2.8 2.3 1.6 2.1 2.9 2.5 3.8 1.8 1.5 1.2 1.6 1.7 2.1 2.6 3.8 1.9 2.1
6.8 7.0 14.7 16.9 10.4 3.9 4.2 3.8 5.2 4.7 2.4 3.6 4.4 5.4 5.4 4.0 4.4 4.2 5.1 4.3 4.5 2.7 2.0 3.0 3.1 2.9 3.5 7.0 3.0 nan 2.8 1.9 4.9 5.2 3.4 3.5 2.8 2.1
4.0 6.9 10.2 11.1 5.6 3.7 3.9 4.8 5.4 7.2 7.4 5.8 7.4 10.6 11.8 7.7 6.7 4.4 3.8 5.9 4.3 2.7 2.4 1.5 2.3 2.7 3.1 7.0 12.5 11.1 nan 7.6 6.6 6.8 4.6 3.9 3.1 nan
4.2 3.8 8.3 5.6 5.8 4.4 13.2 14.1 17.2 15.8 16.0 18.8 10.8 10.5 21.8 5.8 6.9 4.9 5.5 4.2 3.7 2.2 2.5 2.4 2.6 0.4 2.2 5.8 22.3 11.5 11.3 nan 5.3 5.1 4.0 4.7 2.8 2.0
7.5 4.7 5.0 5.2 8.1 7.6 15.7 23.3 21.3 21.1 15.3 11.1 20.4 28.2 25.9 11.6 10.0 8.3 10.7 10.5 4.1 4.9 2.8 2.4 1.6 1.1 3.8 3.1 3.8 14.7 6.6 7.3 nan nan nan nan 4.8 4.6
14.0 5.6 8.5 10.5 8.6 10.6 6.0 12.9 6.1 27.4 11.3 11.4 10.9 11.4 45.8 15.0 8.2 8.5 9.1 6.0 4.2 4.6 3.3 3.2 1.9 1.6 2.2 2.0 3.4 5.8 5.3 9.4 4.2 3.7 8.6 nan nan nan

GFSNE_prec_sndepth_018.txt.gz
Snowfall_Accumulation
0.0 0.0 0.0 0.0 0.0 0.0 0.0 0.0 0.1 0.4 0.0 0.0 0.0 0.0 0.0 0.0 0.0 0.0 0.0 nan nan nan nan nan nan nan nan nan nan nan nan nan nan nan nan nan nan nan
0.0 0.0 0.0 0.0 0.0 0.0 0.0 0.0 0.0 0.0 0.0 0.0 0.0 0.0 0.0 0.0 0.0 0.0 0.0 nan nan nan nan nan nan nan nan nan nan nan nan nan nan nan nan nan nan nan
0.0 0.0 0.0 0.0 0.0 0.0 0.0 0.0 0.0 0.0 0.0 0.0 0.0 0.0 0.0 0.0 0.0 0.0 0.0 0.0 0.0 nan nan nan nan nan nan nan nan nan nan nan nan nan nan nan nan nan
0.0 0.0 0.0 0.0 0.0 0.0 0.0 0.0 0.0 0.0 0.0 0.0 0.0 0.0 0.0 0.0 0.0 0.0 0.0 0.0 0.0 nan nan nan nan nan nan nan nan nan nan nan nan nan nan nan nan nan
0.0 0.0 0.0 0.0 0.0 0.0 0.0 0.0 0.0 0.0 0.0 0.0 0.0 0.0 0.0 0.0 0.0 0.0 0.0 0.0 0.0 nan nan nan nan nan nan nan nan nan nan nan nan nan nan nan nan nan
0.0 0.0 0.0 0.0 0.0 0.0 0.0 0.0 0.0 0.0 0.0 0.0 0.0 0.0 0.0 0.0 0.0 0.0 0.0 0.0 0.0 0.0 nan nan nan nan nan nan nan nan nan nan nan nan nan nan nan nan
0.0 0.0 0.0 nan nan nan 0.0 0.0 0.0 0.0 0.0 0.0 0.0 0.0 0.0 0.0 0.0 0.0 0.0 0.0 0.0 0.0 0.0 0.0 0.0 0.0 0.0 nan nan nan nan nan nan nan nan nan nan nan
0.0 0.0 0.0 0.0 0.0 nan nan nan nan 0.0 0.0 0.0 0.0 0.0 0.0 0.0 0.0 0.0 0.0 0.0 0.1 0.1 0.0 0.3 0.0 0.0 0.0 0.0 nan nan nan nan nan nan nan nan nan nan
0.0 0.0 0.0 0.0 nan 0.0 nan nan nan nan 0.0 0.0 0.1 0.0 0.0 0.0 0.0 0.0 0.0 0.0 0.0 0.0 0.1 0.5 0.5 0.4 0.1 0.0 nan nan nan nan nan nan nan nan nan nan
0.0 0.0 0.0 0.0 0.0 0.0 0.0 0.0 0.0 0.0 0.0 0.0 0.2 0.0 0.0 0.0 0.0 0.0 0.0 0.0 0.2 0.0 0.0 2.3 1.0 1.3 0.7 0.3 nan nan nan nan nan nan nan nan nan nan
0.0 0.0 0.0 0.0 nan nan 0.2 0.5 0.1 0.0 nan nan nan nan nan nan nan 0.4 1.9 2.0 4.7 0.3 0.2 0.7 1.4 1.6 1.1 1.1 0.7 nan nan nan nan nan nan nan nan nan
0.3 0.1 nan 0.0 nan nan 0.7 0.9 1.2 0.1 0.0 0.0 0.0 0.0 nan nan nan 0.0 0.4 1.9 1.6 2.0 0.4 1.0 0.4 1.0 2.7 1.5 1.0 1.0 0.8 nan nan nan nan nan nan 0.3
1.4 1.2 0.9 nan nan nan nan 1.1 0.8 0.0 0.2 0.4 0.1 0.0 0.0 0.0 0.0 0.0 0.0 0.5 1.4 0.9 0.0 0.2 0.8 0.7 1.2 1.7 1.7 1.4 1.1 1.7 1.2 0.7 nan nan nan 0.3
1.7 1.4 1.8 nan nan nan 0.6 nan nan 0.6 4.4 3.7 2.8 1.8 1.4 1.1 0.0 0.0 0.0 0.0 0.0 0.1 0.0 0.1 1.9 0.6 1.0 1.9 1.9 1.7 1.8 2.2 1.9 2.1 1.8 nan nan nan
3.6 2.7 nan nan nan 1.3 nan nan 0.4 4.0 4.6 5.3 2.8 1.4 0.9 0.2 0.0 0.5 0.2 0.1 0.1 0.3 0.1 0.2 1.0 0.3 1.0 1.8 1.9 2.4 2.7 2.4 3.1 3.5 3.5 2.1 1.7 1.2
0.9 2.9 0.8 2.3 0.8 1.2 2.1 2.5 3.0 3.8 3.7 3.6 2.3 1.1 1.0 1.6 1.7 1.0 1.8 2.0 2.8 2.4 0.9 0.4 0.3 0.3 2.4 1.2 0.9 2.2 1.9 3.3 2.4 2.7 3.5 3.9 2.4 1.8
4.1 7.7 4.6 3.8 3.5 2.6 3.0 2.8 2.6 2.4 3.3 4.1 3.6 2.5 1.9 1.6 2.1 2.0 1.8 2.0 3.7 2.5 1.9 1.6 0.6 1.1 1.4 1.1 4.5 1.5 1.7 1.6 1.6 2.6 3.1 2.6 2.4 2.7
4.6 6.5 12.2 13.3 8.2 4.0 5.4 4.4 4.0 3.0 2.7 3.2 4.6 2.9 2.8 3.0 2.7 3.3 2.7 2.9 3.4 2.6 2.2 1.5 2.1 2.8 2.4 3.7 1.7 1.4 1.1 1.5 1.5 2.0 2.3 3.8 1.9 1.9
6.9 7.1 14.8 17.0 10.5 3.9 4.2 3.9 5.3 4.8 2.4 3.6 4.4 5.4 5.4 4.0 4.4 4.1 4.8 4.0 4.3 2.6 2.0 2.7 3.1 3.1 4.2 7.7 3.9 nan 2.9 2.0 4.7 5.0 3.2 3.4 3.0 2.0
4.0 7.0 10.3 11.2 5.6 3.7 3.8 4.8 5.4 7.2 7.4 5.8 7.4 10.6 11.8 7.7 6.7 4.5 3.8 5.9 4.2 2.7 2.3 1.5 2.3 2.7 3.3 7.2 12.7 11.1 nan 7.6 6.7 6.8 4.6 3.6 3.4 nan
4.2 3.8 8.3 5.5 5.8 4.4 13.1 14.0 17.1 15.7 15.9 18.7 10.8 10.5 21.7 5.9 6.9 4.9 5.5 4.2 3.6 2.2 2.4 2.4 2.5 0.4 2.1 5.5 22.3 11.8 11.2 nan 5.3 5.1 4.0 4.8 3.1 1.9
7.4 4.6 5.0 5.2 8.1 7.5 15.6 23.1 21.1 21.0 15.2 11.1 20.2 28.0 25.8 11.6 10.1 8.3 10.7 10.5 4.1 4.9 2.8 2.3 1.5 1.0 3.7 3.1 3.8 14.8 6.6 7.2 nan nan nan nan 4.8 4.9
13.9 5.6 8.4 10.4 8.6 10.5 6.0 12.8 6.0 27.2 11.3 11.3 10.8 11.3 45.2 14.9 8.2 8.5 9.1 6.0 4.2 4.6 3.3 3.3 1.9 1.5 2.2 2.0 3.4 5.9 5.3 9.4 4.2 3.9 8.6 nan nan nan

GFSNE_prec_sndepth_021.txt.gz
Snowfall_Accumulation
0.0 0.0 0.0 0.0 0.0 0.0 0.0 0.0 0.1 0.4 0.0 0.0 0.0 0.0 0.0 0.0 0.0 0.0 0.0 nan nan nan nan nan nan nan nan nan nan nan nan nan nan nan nan nan nan nan
0.0 0.0 0.0 0.0 0.0 0.0 0.0 0.0 0.0 0.0 0.0 0.0 0.0 0.0 0.0 0.0 0.0 0.0 0.0 nan nan nan nan nan nan nan nan nan nan nan nan nan nan nan nan nan nan nan
0.0 0.0 0.0 0.0 0.0 0.0 0.0 0.0 0.0 0.0 0.0 0.0 0.0 0.0 0.0 0.0 0.0 0.0 0.0 0.0 0.0 nan nan nan nan nan nan nan nan nan nan nan nan nan nan nan nan nan
0.0 0.0 0.0 0.0 0.0 0.0 0.0 0.0 0.0 0.0 0.0 0.0 0.0 0.0 0.0 0.0 0.0 0.0 0.0 0.0 0.0 nan nan nan nan nan nan nan nan nan nan nan nan nan nan nan nan nan
0.0 0.0 0.0 0.0 0.0 0.0 0.0 0.0 0.0 0.0 0.0 0.0 0.0 0.0 0.0 0.0 0.0 0.0 0.0 0.0 0.0 nan nan nan nan nan nan nan nan nan nan nan nan nan nan nan nan nan
0.0 0.0 0.0 0.0 0.0 0.0 0.0 0.0 0.0 0.0 0.0 0.0 0.0 0.0 0.0 0.0 0.0 0.0 0.0 0.0 0.0 0.0 nan nan nan nan nan nan nan nan nan nan nan nan nan nan nan nan
0.0 0.0 0.0 nan nan nan 0.0 0.0 0.0 0.0 0.0 0.0 0.0 0.0 0.0 0.0 0.0 0.0 0.0 0.0 0.0 0.0 0.0 0.0 0.0 0.0 0.0 nan nan nan nan nan nan nan nan nan nan nan
0.0 0.0 0.0 0.0 0.0 nan nan nan nan 0.0 0.0 0.0 0.0 0.0 0.0 0.0 0.0 0.0 0.0 0.0 0.1 0.1 0.0 0.3 0.0 0.0 0.0 0.0 nan nan nan nan nan nan nan nan nan nan
0.0 0.0 0.0 0.0 nan 0.0 nan nan nan nan 0.0 0.0 0.1 0.0 0.0 0.0 0.0 0.0 0.0 0.0 0.0 0.0 0.1 0.5 0.5 0.4 0.1 0.0 nan nan nan nan nan nan nan nan nan nan
0.0 0.0 0.0 0.0 0.0 0.0 0.0 0.0 0.0 0.0 0.0 0.0 0.2 0.0 0.0 0.0 0.0 0.0 0.1 0.1 0.3 0.0 0.0 2.3 1.0 1.3 0.7 0.3 nan nan nan nan nan nan nan nan nan nan
0.0 0.0 0.0 0.0 nan nan 0.2 0.5 0.1 0.0 nan nan nan nan nan nan nan 0.4 1.9 2.0 4.7 0.3 0.2 0.8 1.4 1.6 1.1 1.1 0.7 nan nan nan nan nan nan nan nan nan
0.3 0.1 nan 0.0 nan nan 1.1 1.0 1.3 0.1 0.0 0.0 0.0 0.0 nan nan nan 0.0 0.4 2.1 1.7 2.1 0.4 1.0 0.4 1.0 2.8 1.5 1.0 1.0 0.8 nan nan nan nan nan nan 0.2
1.4 1.2 0.9 nan nan nan nan 1.2 0.8 0.1 0.2 0.4 0.0 0.0 0.0 0.0 0.0 0.0 0.0 0.5 1.5 0.9 0.0 0.2 0.8 0.7 1.3 1.7 1.7 1.4 1.2 1.7 1.2 0.7 nan nan nan 0.3
1.7 1.4 1.9 nan nan nan 0.7 nan nan 0.6 4.5 3.8 2.9 1.8 1.5 1.2 0.2 0.3 0.3 0.1 0.1 0.1 0.0 0.2 2.4 0.6 1.0 1.9 1.9 1.7 1.9 2.2 1.9 2.2 1.8 nan nan nan
3.7 2.8 nan nan nan 1.3 nan nan 0.5 4.3 5.1 5.5 3.0 1.5 1.0 0.2 0.1 0.5 0.2 0.1 0.1 0.3 0.1 0.2 1.3 0.4 1.3 1.9 1.9 2.4 2.7 2.4 3.1 3.3 3.3 2.1 1.7 1.2
0.9 3.0 0.9 2.3 0.8 1.4 2.2 2.6 3.2 3.9 3.8 3.8 2.3 1.2 1.0 1.6 1.7 1.0 2.1 2.0 2.8 2.4 0.9 0.4 0.3 0.4 2.5 1.3 1.0 2.2 1.9 3.3 2.4 2.4 3.2 3.9 2.4 1.7
4.1 7.8 4.7 3.8 3.6 2.7 3.1 2.8 2.6 2.5 3.3 4.2 3.7 2.6 1.9 1.6 2.1 2.0 1.8 2.0 3.7 2.5 1.9 1.6 0.6 1.1 1.4 1.1 4.6 1.5 1.7 1.6 1.6 2.5 3.0 2.6 2.3 2.5
4.6 6.6 12.3 13.4 8.4 4.2 5.6 4.5 4.1 3.1 2.8 3.2 4.6 3.0 2.8 3.1 2.7 3.3 2.7 3.0 3.5 2.6 2.2 1.5 2.1 2.9 2.5 3.7 1.8 1.4 1.1 1.5 1.6 2.0 2.2 3.8 1.9 1.9
7.0 7.2 14.8 17.0 10.5 3.9 4.2 4.0 5.6 5.2 2.4 3.7 4.5 5.5 5.4 4.0 4.4 4.1 4.8 4.0 4.3 2.8 2.3 2.8 3.2 3.5 4.9 8.3 4.2 nan 3.0 2.1 4.7 5.0 3.2 3.4 3.1 2.3
4.0 7.0 10.3 11.2 5.6 3.7 3.8 4.7 5.4 7.3 7.4 5.8 7.4 10.6 11.9 7.8 6.7 4.5 3.8 6.0 4.3 2.9 2.4 1.5 2.3 2.7 3.3 7.2 12.7 11.1 nan 7.6 6.7 6.8 4.6 3.7 3.5 nan
4.2 3.8 8.2 5.5 5.7 4.4 13.0 13.9 17.0 15.7 15.8 18.6 10.8 10.5 21.7 6.0 6.9 5.0 5.5 4.2 3.6 2.2 2.5 2.4 2.5 0.4 2.1 5.5 22.3 11.8 11.2 nan 5.3 5.1 4.0 4.8 3.3 2.2
7.4 4.6 5.0 5.2 8.1 7.5 15.5 22.9 21.0 20.9 15.1 11.0 20.1 27.8 25.7 11.6 10.1 8.4 10.7 10.6 4.1 5.0 2.8 2.3 1.5 1.1 3.7 3.1 3.8 15.1 6.6 7.2 nan nan nan nan 4.8 5.0
13.9 5.6 8.4 10.4 8.6 10.4 6.0 12.8 6.0 27.0 11.2 11.3 10.8 11.3 44.7 14.9 8.2 8.5 9.1 6.0 4.2 4.6 3.3 3.3 1.9 1.5 2.2 2.0 3.4 6.0 5.3 9.4 4.2 3.9 8.6 nan nan nan

GFSNE_prec_sndepth_027.txt.gz
Snowfall_Accumulation
0.0 0.0 0.0 0.0 0.0 0.0 0.0 0.0 0.5 1.4 0.2 0.0 0.0 0.0 0.0 0.0 0.0 0.0 0.0 nan nan nan nan nan nan nan nan nan nan nan nan nan nan nan nan nan nan nan
0.0 0.0 0.0 0.0 0.0 0.0 0.0 0.0 0.0 0.2 0.7 0.0 0.0 0.0 0.0 0.0 0.0 0.0 0.0 nan nan nan nan nan nan nan nan nan nan nan nan nan nan nan nan nan nan nan
0.0 0.0 0.0 0.0 0.0 0.0 0.0 0.0 0.0 0.0 0.0 0.0 0.0 0.0 0.0 0.0 0.0 0.0 0.0 0.0 0.0 nan nan nan nan nan nan nan nan nan nan nan nan nan nan nan nan nan
0.0 0.0 0.0 0.0 0.0 0.0 0.0 0.0 0.0 0.0 0.0 0.0 0.0 0.0 0.0 0.0 0.0 0.0 0.0 0.0 0.0 nan nan nan nan nan nan nan nan nan nan nan nan nan nan nan nan nan
0.0 0.0 0.0 0.0 0.0 0.0 0.0 0.0 0.0 0.0 0.0 0.0 0.0 0.0 0.0 0.0 0.0 0.0 0.0 0.0 0.0 nan nan nan nan nan nan nan nan nan nan nan nan nan nan nan nan nan
0.0 0.0 0.0 0.0 0.0 0.0 0.0 0.0 0.0 0.0 0.0 0.0 0.0 0.0 0.0 0.0 0.0 0.0 0.0 0.0 0.0 0.0 nan nan nan nan nan nan nan nan nan nan nan nan nan nan nan nan
0.0 0.0 0.0 nan nan nan 0.0 0.0 0.1 0.1 0.1 0.0 0.0 0.0 0.0 0.0 0.0 0.0 0.0 0.0 0.0 0.0 0.0 0.0 0.0 0.0 0.0 nan nan nan nan nan nan nan nan nan nan nan
0.0 0.0 0.0 0.0 0.0 nan nan nan nan 0.1 0.1 0.1 0.0 0.0 0.0 0.0 0.0 0.0 0.0 0.0 0.1 0.1 0.0 0.3 0.0 0.0 0.0 0.0 nan nan nan nan nan nan nan nan nan nan
0.0 0.0 0.0 0.0 nan 0.0 nan nan nan nan 0.0 0.1 0.2 0.0 0.0 0.0 0.0 0.0 0.0 0.0 0.0 0.0 0.1 0.5 0.5 0.4 0.1 0.0 nan nan nan nan nan nan nan nan nan nan
0.0 0.0 0.0 0.0 0.0 0.0 0.1 0.3 0.0 0.0 0.0 0.0 0.2 0.1 0.0 0.0 0.0 0.0 0.1 0.1 0.3 0.0 0.0 2.5 1.0 1.3 0.7 0.3 nan nan nan nan nan nan nan nan nan nan
0.0 0.0 0.0 0.0 nan nan 0.4 0.8 0.2 0.0 nan nan nan nan nan nan nan 1.0 2.1 2.4 4.7 0.3 0.2 0.8 1.4 1.6 1.1 1.1 0.7 nan nan nan nan nan nan nan nan nan
0.3 0.1 nan 0.0 nan nan 1.5 1.3 1.5 0.1 0.0 0.0 0.0 0.0 nan nan nan 0.0 0.4 2.1 1.7 2.1 0.4 1.0 0.4 1.0 2.8 1.5 1.0 1.0 0.8 nan nan nan nan nan nan 0.2
1.4 1.2 0.8 nan nan nan nan 1.6 1.3 0.2 0.2 0.6 0.1 0.1 0.0 0.0 0.0 0.0 0.1 0.6 1.5 0.9 0.0 0.2 0.8 0.7 1.3 1.7 1.7 1.4 1.2 1.7 1.2 0.7 nan nan nan 0.3
1.8 1.4 2.1 nan nan nan 1.0 nan nan 0.6 4.7 4.1 3.2 2.0 1.8 1.5 0.3 0.4 0.4 0.6 0.4 0.2 0.0 0.2 2.7 0.6 1.0 1.9 2.0 1.7 1.9 2.2 1.9 2.2 1.9 nan nan nan
3.7 3.2 nan nan nan 1.3 nan nan 0.5 4.5 5.3 5.7 3.2 1.8 1.4 0.5 0.3 0.7 0.2 0.1 0.1 0.3 0.1 0.5 1.7 0.5 1.5 2.1 1.9 2.4 2.7 2.4 3.1 3.4 3.1 2.0 1.6 1.2
0.9 3.0 0.9 2.4 0.9 1.5 2.4 2.9 3.5 4.3 4.4 4.2 2.7 1.5 1.2 1.8 2.1 1.5 2.5 2.3 3.0 2.4 0.9 0.4 0.3 0.5 2.9 1.5 1.1 2.3 1.9 3.3 2.4 2.4 3.2 3.7 2.3 1.7
4.1 7.8 4.6 3.8 3.6 2.7 3.1 3.0 2.7 2.6 3.5 4.4 3.9 2.8 2.1 1.9 2.4 2.2 2.0 2.1 3.8 2.6 1.9 1.7 0.7 1.2 1.5 1.1 4.8 1.5 1.7 1.6 1.6 2.5 3.1 2.6 2.1 2.2
4.6 6.6 12.3 13.4 8.4 4.2 5.6 4.5 4.1 3.3 2.9 3.4 4.8 3.2 3.1 3.4 3.0 3.3 2.8 3.1 3.8 2.7 2.3 1.6 2.2 3.2 3.1 4.2 2.3 1.6 1.4 1.6 1.6 2.0 2.3 3.9 1.9 1.9
7.0 7.2 14.8 17.0 10.4 3.9 4.2 4.0 5.7 5.3 2.5 3.9 4.8 5.7 5.7 4.2 4.5 4.1 4.9 4.1 4.4 2.9 2.3 2.8 3.3 3.6 5.0 8.4 4.3 nan 3.1 2.1 4.8 5.1 3.2 3.5 3.1 2.3
4.0 7.0 10.3 11.2 5.6 3.7 3.8 4.8 5.4 7.2 7.3 5.8 7.6 10.8 12.1 8.0 6.8 4.6 3.9 6.0 4.3 3.0 2.4 1.5 2.3 2.7 3.3 7.3 12.7 11.1 nan 7.6 6.7 6.8 4.6 3.7 3.5 nan
4.2 3.8 8.2 5.5 5.7 4.4 13.0 13.9 16.9 15.6 15.7 18.5 10.8 10.5 21.7 6.2 7.0 5.0 5.6 4.2 3.6 2.2 2.5 2.4 2.5 0.4 2.1 5.6 22.3 11.8 11.2 nan 5.3 5.1 4.0 4.8 3.3 2.3
7.4 4.6 5.0 5.2 8.1 7.5 15.4 22.7 20.8 20.7 15.0 11.0 19.9 27.5 25.4 11.6 10.2 8.5 10.7 10.6 4.1 5.0 2.8 2.3 1.5 1.1 3.7 3.1 3.8 15.1 6.6 7.2 nan nan nan nan 4.8 5.0
13.9 5.6 8.4 10.4 8.6 10.4 6.0 12.7 6.0 26.7 11.2 11.3 10.7 11.2 43.9 14.8 8.2 8.5 9.1 6.0 4.2 4.6 3.3 3.3 1.9 1.5 2.2 2.1 3.4 6.2 5.4 9.4 4.2 4.0 8.6 nan nan nan

GFSNE_prec_sndepth_030.txt.gz
Snowfall_Accumulation
0.0 0.0 0.0 0.0 0.0 0.0 0.0 0.0 0.5 1.4 0.2 0.0 0.0 0.0 0.0 0.0 0.0 0.0 0.0 nan nan nan nan nan nan nan nan nan nan nan nan nan nan nan nan nan nan nan
0.0 0.0 0.0 0.0 0.0 0.0 0.0 0.0 0.0 0.2 0.7 0.0 0.0 0.0 0.0 0.0 0.0 0.0 0.0 nan nan nan nan nan nan nan nan nan nan nan nan nan nan nan nan nan nan nan
0.0 0.0 0.0 0.0 0.0 0.0 0.0 0.0 0.0 0.0 0.0 0.0 0.0 0.0 0.0 0.0 0.0 0.0 0.0 0.0 0.0 nan nan nan nan nan nan nan nan nan nan nan nan nan nan nan nan nan
0.0 0.0 0.0 0.0 0.0 0.0 0.0 0.0 0.0 0.0 0.0 0.0 0.0 0.0 0.0 0.0 0.0 0.0 0.0 0.0 0.0 nan nan nan nan nan nan nan nan nan nan nan nan nan nan nan nan nan
0.0 0.0 0.0 0.0 0.0 0.0 0.0 0.0 0.0 0.0 0.0 0.2 0.0 0.0 0.0 0.0 0.0 0.0 0.0 0.0 0.0 nan nan nan nan nan nan nan nan nan nan nan nan nan nan nan nan nan
0.0 0.0 0.0 0.0 0.0 0.0 0.0 0.0 0.0 0.0 0.1 0.2 0.1 0.0 0.0 0.0 0.0 0.0 0.0 0.0 0.0 0.0 nan nan nan nan nan nan nan nan nan nan nan nan nan nan nan nan
0.0 0.0 0.0 nan nan nan 0.0 0.0 0.1 0.1 0.1 0.1 0.1 0.1 0.0 0.0 0.0 0.0 0.0 0.0 0.0 0.0 0.0 0.0 0.0 0.0 0.0 nan nan nan nan nan nan nan nan nan nan nan
0.0 0.0 0.0 0.0 0.0 nan nan nan nan 0.2 0.2 0.2 0.1 0.1 0.0 0.0 0.0 0.0 0.0 0.0 0.1 0.1 0.0 0.3 0.0 0.0 0.0 0.0 nan nan nan nan nan nan nan nan nan nan
0.0 0.0 0.0 0.0 nan 0.0 nan nan nan nan 0.1 0.4 0.6 0.1 0.1 0.0 0.0 0.0 0.0 0.0 0.0 0.0 0.1 0.5 0.5 0.4 0.1 0.0 nan nan nan nan nan nan nan nan nan nan
0.0 0.0 0.0 0.0 0.0 0.0 0.1 0.4 0.0 0.0 0.0 0.0 0.2 0.1 0.0 0.0 0.1 0.0 0.1 0.1 0.3 0.0 0.0 2.5 1.0 1.3 0.7 0.3 nan nan nan nan nan nan nan nan nan nan
0.0 0.0 0.0 0.0 nan nan 0.6 0.9 0.2 0.0 nan nan nan nan nan nan nan 1.4 2.3 2.6 4.8 0.3 0.2 0.8 1.4 1.6 1.1 1.1 0.7 nan nan nan nan nan nan nan nan nan
0.3 0.1 nan 0.0 nan nan 1.7 1.4 1.6 0.1 0.0 0.0 0.0 0.0 nan nan nan 0.0 0.4 2.1 1.7 2.1 0.4 1.0 0.4 1.0 2.8 1.5 1.0 1.0 0.8 nan nan nan nan nan nan 0.2
1.4 1.1 0.8 nan nan nan nan 1.8 1.8 0.3 0.3 0.6 0.2 0.2 0.1 0.2 0.1 0.0 0.1 0.6 1.5 0.9 0.0 0.2 0.8 0.7 1.3 1.7 1.7 1.4 1.2 1.7 1.2 0.7 nan nan nan 0.2
1.8 1.4 2.1 nan nan nan 1.1 nan nan 0.6 4.8 4.1 3.2 2.0 1.8 1.5 0.4 0.6 0.5 0.7 0.4 0.1 0.1 0.3 2.9 0.6 1.0 1.9 2.0 1.7 1.9 2.2 1.9 2.2 1.8 nan nan nan
3.7 3.2 nan nan nan 1.3 nan nan 0.5 4.6 5.3 5.7 3.3 1.9 1.4 0.6 0.4 0.8 0.3 0.2 0.2 0.4 0.2 0.9 1.7 0.5 1.6 2.1 1.9 2.4 2.7 2.4 3.1 3.4 3.1 2.0 1.6 1.2
0.9 3.0 0.9 2.4 0.9 1.5 2.4 2.9 3.5 4.3 4.6 4.3 2.7 1.5 1.3 1.9 2.4 1.9 3.1 2.5 3.2 2.6 1.0 0.6 0.4 0.7 3.0 1.5 1.1 2.3 1.9 3.3 2.4 2.5 3.2 3.7 2.2 1.6
4.1 7.8 4.6 3.8 3.6 2.7 3.1 3.0 2.6 2.6 3.5 4.4 4.0 2.8 2.2 2.0 2.6 2.4 2.2 2.2 3.9 2.7 2.0 1.8 0.9 1.4 1.7 1.3 5.0 1.5 1.7 1.6 1.6 2.5 3.1 2.6 2.1 2.2
4.6 6.6 12.3 13.4 8.4 4.2 5.6 4.5 4.1 3.3 2.9 3.5 4.8 3.3 3.2 3.5 3.1 3.4 3.0 3.3 3.9 2.9 2.3 1.6 2.5 3.4 3.4 4.5 2.5 1.6 1.4 1.7 1.5 1.9 2.2 3.8 1.9 1.9
7.0 7.2 14.8 16.9 10.4 3.9 4.2 4.0 5.7 5.3 2.5 3.9 4.8 5.8 5.7 4.2 4.6 4.2 4.9 4.2 4.5 3.0 2.4 2.8 3.5 3.7 5.1 8.5 4.4 nan 3.1 2.1 4.8 5.1 3.3 3.5 3.1 2.3
4.0 7.0 10.3 11.2 5.6 3.8 3.8 4.8 5.4 7.2 7.3 5.8 7.5 10.8 12.1 8.1 6.8 4.6 3.9 6.0 4.3 3.0 2.3 1.5 2.3 2.7 3.4 7.3 12.7 11.1 nan 7.6 6.7 6.8 4.6 3.7 3.5 nan
4.2 3.8 8.2 5.5 5.7 4.4 13.0 13.8 16.9 15.5 15.7 18.4 10.7 10.5 21.6 6.3 7.0 5.1 5.6 4.2 3.6 2.2 2.5 2.4 2.5 0.4 2.1 5.6 22.2 11.8 11.2 nan 5.3 5.1 4.0 4.8 3.3 2.3
7.4 4.6 5.0 5.2 8.1 7.5 15.4 22.7 20.7 20.6 15.0 10.9 19.9 27.4 25.3 11.6 10.2 8.5 10.7 10.6 4.1 5.0 2.8 2.3 1.5 1.0 3.8 3.1 3.8 15.1 6.7 7.2 nan nan nan nan 4.8 5.0
13.8 5.6 8.4 10.4 8.6 10.4 6.0 12.7 6.0 26.6 11.2 11.2 10.7 11.2 43.6 14.8 8.2 8.5 9.1 6.0 4.2 4.5 3.3 3.3 1.9 1.5 2.2 2.1 3.4 6.2 5.5 9.4 4.2 4.0 8.6 nan nan nan

GFSNE_prec_sndepth_033.txt.gz
Snowfall_Accumulation
0.0 0.0 0.0 0.0 0.0 0.0 0.0 0.0 0.5 1.3 0.2 0.0 0.0 0.0 0.0 0.0 0.0 0.0 0.0 nan nan nan nan nan nan nan nan nan nan nan nan nan nan nan nan nan nan nan
0.0 0.0 0.0 0.0 0.0 0.0 0.0 0.0 0.0 0.1 0.6 0.0 0.0 0.0 0.0 0.0 0.0 0.0 0.0 nan nan nan nan nan nan nan nan nan nan nan nan nan nan nan nan nan nan nan
0.0 0.0 0.0 0.0 0.0 0.0 0.0 0.0 0.0 0.0 0.0 0.0 0.0 0.0 0.0 0.0 0.0 0.0 0.0 0.0 0.0 nan nan nan nan nan nan nan nan nan nan nan nan nan nan nan nan nan
0.0 0.0 0.0 0.0 0.0 0.0 0.0 0.0 0.0 0.0 0.0 0.0 0.0 0.0 0.0 0.0 0.0 0.0 0.0 0.0 0.0 nan nan nan nan nan nan nan nan nan nan nan nan nan nan nan nan nan
0.0 0.0 0.0 0.0 0.0 0.0 0.0 0.0 0.0 0.0 0.0 0.2 0.0 0.0 0.0 0.0 0.0 0.0 0.0 0.0 0.0 nan nan nan nan nan nan nan nan nan nan nan nan nan nan nan nan nan
0.0 0.0 0.0 0.0 0.0 0.0 0.0 0.0 0.0 0.0 0.0 0.2 0.1 0.0 0.0 0.0 0.0 0.0 0.0 0.0 0.0 0.0 nan nan nan nan nan nan nan nan nan nan nan nan nan nan nan nan
0.0 0.0 0.0 nan nan nan 0.0 0.0 0.1 0.1 0.2 0.2 0.1 0.1 0.0 0.0 0.0 0.0 0.1 0.0 0.0 0.0 0.0 0.0 0.0 0.0 0.0 nan nan nan nan nan nan nan nan nan nan nan
0.0 0.0 0.0 0.0 0.0 nan nan nan nan 0.2 0.3 0.3 0.2 0.2 0.0 0.0 0.0 0.0 0.0 0.0 0.1 0.0 0.0 0.2 0.0 0.0 0.0 0.0 nan nan nan nan nan nan nan nan nan nan
0.0 0.0 0.0 0.0 nan 0.0 nan nan nan nan 0.1 0.7 0.7 0.2 0.2 0.0 0.0 0.0 0.0 0.0 0.0 0.0 0.1 0.5 0.4 0.3 0.1 0.0 nan nan nan nan nan nan nan nan nan nan
0.0 0.0 0.0 0.0 0.0 0.0 0.3 0.4 0.0 0.0 0.0 0.1 0.3 0.1 0.0 0.0 0.1 0.1 0.1 0.1 0.3 0.0 0.0 2.5 0.8 1.1 0.6 0.2 nan nan nan nan nan nan nan nan nan nan
0.0 0.0 0.0 0.0 nan nan 0.5 0.9 0.2 0.0 nan nan nan nan nan nan nan 1.2 2.3 2.8 4.6 0.3 0.2 0.7 1.2 1.4 1.0 0.9 0.6 nan nan nan nan nan nan nan nan nan
0.2 0.1 nan 0.0 nan nan 1.8 1.4 1.7 0.2 0.0 0.0 0.0 0.0 nan nan nan 0.0 0.4 2.1 1.8 2.0 0.4 0.9 0.3 0.9 2.5 1.3 0.8 0.9 0.7 nan nan nan nan nan nan 0.2
1.4 1.1 0.8 nan nan nan nan 1.9 2.2 0.3 0.3 0.6 0.2 0.1 0.1 0.2 0.1 0.1 0.1 0.5 1.4 0.8 0.0 0.1 0.7 0.6 1.1 1.4 1.4 1.2 1.0 1.4 1.0 0.6 nan nan nan 0.2
1.7 1.4 2.1 nan nan nan 1.1 nan nan 0.6 4.7 4.1 3.1 2.0 1.8 1.4 0.3 0.6 0.5 0.7 0.4 0.1 0.1 0.3 2.6 0.6 0.9 1.7 1.7 1.4 1.5 1.8 1.5 1.7 1.5 nan nan nan
3.6 3.1 nan nan nan 1.3 nan nan 0.5 4.5 5.3 5.7 3.3 1.8 1.5 0.7 0.4 0.8 0.3 0.2 0.2 0.3 0.3 0.9 1.6 0.5 1.5 1.9 1.7 2.0 2.2 1.9 2.5 2.7 2.6 1.6 1.3 1.0
0.9 2.9 0.9 2.3 0.9 1.5 2.3 2.8 3.4 4.3 4.6 4.4 2.8 1.6 1.4 2.0 2.4 2.0 3.3 2.5 2.9 2.7 0.9 0.6 0.7 0.7 2.8 1.3 0.9 2.0 1.6 3.0 2.0 2.1 2.6 3.0 1.8 1.3
4.1 7.8 4.6 3.7 3.6 2.7 3.1 2.9 2.6 2.5 3.4 4.4 4.0 2.8 2.2 2.0 2.6 2.3 2.1 2.1 4.0 2.7 1.9 1.8 0.8 1.1 1.5 1.1 4.5 1.3 1.5 1.4 1.3 2.1 2.5 2.2 1.7 1.7
4.5 6.5 12.2 13.3 8.3 4.1 5.5 4.5 4.0 3.2 2.9 3.4 4.8 3.3 3.2 3.4 3.0 3.3 2.9 3.3 3.9 3.1 2.4 1.6 2.4 3.2 3.0 3.9 2.1 1.5 1.2 1.4 1.3 1.5 1.9 3.4 1.5 1.5
6.9 7.1 14.7 16.8 10.3 3.9 4.2 4.0 5.6 5.2 2.4 3.9 4.8 5.8 5.7 4.2 4.5 4.1 4.8 4.1 4.3 2.8 2.4 2.8 3.4 3.7 4.7 7.7 3.8 nan 2.7 1.9 4.3 4.6 3.0 3.1 2.6 1.9
4.0 6.9 10.2 11.1 5.5 3.7 3.8 4.7 5.3 7.1 7.2 5.8 7.5 10.7 12.1 8.0 6.8 4.6 3.8 5.9 4.2 2.7 2.2 1.3 2.1 2.5 3.1 6.8 11.7 9.9 nan 6.5 5.7 5.8 3.9 3.1 2.9 nan
4.1 3.8 8.2 5.5 5.7 4.3 12.9 13.7 16.7 15.4 15.5 18.3 10.7 10.4 21.5 6.2 6.9 5.0 5.5 4.2 3.6 2.1 2.3 2.3 2.3 0.4 1.9 5.0 20.4 10.4 9.8 nan 4.5 4.1 3.2 4.1 2.8 2.0
7.3 4.5 4.9 5.1 8.0 7.4 15.3 22.5 20.6 20.4 14.9 10.8 19.7 27.1 25.1 11.5 10.1 8.4 10.6 10.5 4.0 4.9 2.8 2.2 1.4 1.0 3.5 2.8 3.4 13.8 5.9 6.2 nan nan nan nan 4.1 4.3
13.7 5.5 8.3 10.3 8.5 10.3 5.9 12.6 5.9 26.4 11.1 11.1 10.6 11.1 43.1 14.6 8.1 8.4 9.0 6.0 4.2 4.5 3.2 3.2 1.8 1.4 2.0 2.0 3.1 5.6 5.1 8.6 3.7 3.3 7.3 nan nan nan

GFSNE_prec_sndepth_036.txt.gz
Snowfall_Accumulation
0.0 0.0 0.0 0.0 0.0 0.0 0.0 0.0 0.4 1.0 0.1 0.0 0.0 0.0 0.0 0.0 0.0 0.0 0.0 nan nan nan nan nan nan nan nan nan nan nan nan nan nan nan nan nan nan nan
0.0 0.0 0.0 0.0 0.0 0.0 0.0 0.0 0.0 0.1 0.5 0.0 0.0 0.0 0.0 0.0 0.0 0.0 0.0 nan nan nan nan nan nan nan nan nan nan nan nan nan nan nan nan nan nan nan
0.0 0.0 0.0 0.0 0.0 0.0 0.0 0.0 0.0 0.0 0.0 0.0 0.0 0.0 0.0 0.0 0.0 0.0 0.0 0.0 0.0 nan nan nan nan nan nan nan nan nan nan nan nan nan nan nan nan nan
0.0 0.0 0.0 0.0 0.0 0.0 0.0 0.0 0.0 0.0 0.0 0.0 0.0 0.0 0.0 0.0 0.0 0.0 0.0 0.0 0.0 nan nan nan nan nan nan nan nan nan nan nan nan nan nan nan nan nan
0.0 0.0 0.0 0.0 0.0 0.0 0.0 0.0 0.0 0.0 0.0 0.1 0.0 0.0 0.0 0.0 0.0 0.0 0.0 0.0 0.0 nan nan nan nan nan nan nan nan nan nan nan nan nan nan nan nan nan
0.0 0.0 0.0 0.0 0.0 0.0 0.0 0.0 0.0 0.0 0.0 0.1 0.0 0.0 0.0 0.0 0.0 0.0 0.0 0.0 0.0 0.0 nan nan nan nan nan nan nan nan nan nan nan nan nan nan nan nan
0.0 0.0 0.0 nan nan nan 0.0 0.0 0.0 0.1 0.1 0.1 0.1 0.0 0.0 0.0 0.0 0.0 0.0 0.0 0.0 0.0 0.0 0.0 0.0 0.0 0.0 nan nan nan nan nan nan nan nan nan nan nan
0.0 0.0 0.0 0.0 0.0 nan nan nan nan 0.1 0.2 0.3 0.1 0.1 0.0 0.0 0.0 0.0 0.0 0.0 0.1 0.0 0.0 0.2 0.0 0.0 0.0 0.0 nan nan nan nan nan nan nan nan nan nan
0.0 0.0 0.0 0.0 nan 0.0 nan nan nan nan 0.0 0.4 0.5 0.1 0.1 0.0 0.0 0.0 0.0 0.0 0.0 0.0 0.1 0.4 0.3 0.3 0.1 0.0 nan nan nan nan nan nan nan nan nan nan
0.0 0.0 0.0 0.0 0.0 0.0 0.2 0.3 0.0 0.0 0.0 0.0 0.2 0.0 0.0 0.0 0.0 0.0 0.0 0.1 0.2 0.0 0.0 2.3 0.7 0.9 0.5 0.2 nan nan nan nan nan nan nan nan nan nan
0.0 0.0 0.0 0.0 nan nan 0.3 0.6 0.1 0.0 nan nan nan nan nan nan nan 1.0 2.0 2.3 3.9 0.2 0.2 0.6 0.9 1.1 0.8 0.7 0.4 nan nan nan nan nan nan nan nan nan
0.1 0.0 nan 0.0 nan nan 1.6 1.3 1.5 0.1 0.0 0.0 0.0 0.0 nan nan nan 0.0 0.3 1.9 1.5 1.7 0.3 0.7 0.3 0.7 2.0 0.9 0.6 0.6 0.5 nan nan nan nan nan nan 0.1
1.1 0.9 0.6 nan nan nan nan 1.5 2.0 0.2 0.2 0.5 0.1 0.1 0.1 0.1 0.1 0.1 0.1 0.5 1.2 0.7 0.0 0.1 0.6 0.5 0.9 1.2 1.1 0.9 0.7 1.0 0.7 0.4 nan nan nan 0.2
1.2 1.1 1.6 nan nan nan 0.9 nan nan 0.5 4.3 3.9 2.9 1.7 1.6 1.3 0.3 0.5 0.3 0.5 0.3 0.1 0.0 0.1 2.1 0.5 0.7 1.4 1.4 1.0 1.1 1.3 1.1 1.2 1.0 nan nan nan
2.9 2.5 nan nan nan 1.3 nan nan 0.5 4.0 5.0 5.7 3.3 1.8 1.4 0.6 0.3 0.7 0.4 0.2 0.1 0.2 0.1 0.5 1.4 0.3 1.2 1.5 1.4 1.6 1.7 1.5 1.8 1.9 1.8 1.1 0.9 0.7
0.6 2.3 0.9 2.0 0.9 1.3 1.9 2.2 2.8 3.8 4.3 4.4 2.8 1.5 1.2 1.7 2.1 1.8 3.0 2.1 2.4 2.4 0.5 0.4 0.6 0.5 2.4 1.1 0.8 1.6 1.2 2.5 1.5 1.7 1.9 2.2 1.3 1.0
3.6 6.6 3.7 3.0 2.9 2.2 2.5 2.5 2.2 2.2 3.1 4.3 3.9 2.8 2.1 1.8 2.3 2.0 1.9 1.8 3.6 2.3 1.9 1.5 0.5 0.7 1.2 0.8 3.7 1.1 1.2 1.1 1.1 1.7 2.0 1.7 1.4 1.4
3.8 5.5 11.0 12.2 7.4 3.5 4.8 3.9 3.4 2.8 2.6 3.2 4.7 3.1 3.2 3.4 2.9 2.9 2.4 2.8 3.5 2.8 2.1 1.4 2.1 2.8 2.7 3.1 1.8 1.4 1.0 1.2 1.1 1.2 1.5 2.7 1.3 1.2
5.9 5.9 13.0 15.1 9.1 3.2 3.4 3.3 4.9 4.5 2.3 3.6 4.6 5.6 5.5 4.0 4.4 4.0 4.5 3.6 3.7 2.4 2.0 2.4 3.0 3.5 3.8 7.0 3.1 nan 2.4 1.5 3.4 3.8 2.4 2.6 2.1 1.6
3.3 5.7 8.7 9.3 4.5 3.0 3.1 3.9 4.5 6.4 6.5 5.2 7.1 10.6 11.9 7.9 6.4 4.5 3.7 5.8 3.6 2.3 1.7 1.1 1.8 2.1 2.7 6.1 10.2 8.4 nan 5.2 4.5 4.9 3.3 2.5 2.3 nan
3.4 3.0 6.7 4.5 4.6 3.5 11.2 12.3 15.8 14.2 15.0 18.0 10.1 10.0 21.2 6.1 6.6 4.5 5.0 3.9 3.4 1.7 1.9 1.9 1.9 0.2 1.6 3.9 17.9 8.9 8.3 nan 3.2 2.8 2.2 3.2 2.2 1.6
6.1 3.7 3.9 4.1 6.6 6.1 13.4 20.6 18.8 18.3 13.6 9.9 19.3 26.7 24.7 11.1 9.9 8.3 10.1 9.5 3.4 4.2 2.3 1.8 1.1 0.8 2.9 2.2 2.7 11.4 4.9 5.1 nan nan nan nan 3.4 3.9
11.6 4.5 6.9 8.9 7.3 8.9 4.9 10.9 5.0 23.7 9.8 10.4 9.8 10.4 42.4 14.4 7.6 7.9 8.8 5.4 3.6 3.9 2.8 2.9 1.5 1.2 1.7 1.6 2.5 4.6 3.8 7.0 2.9 2.7 6.2 nan nan nan

GFSNE_prec_sndepth_039.txt.gz
Snowfall_Accumulation
0.0 0.0 0.0 0.0 0.0 0.0 0.0 0.0 0.3 0.8 0.1 0.0 0.0 0.0 0.0 0.0 0.0 0.0 0.0 nan nan nan nan nan nan nan nan nan nan nan nan nan nan nan nan nan nan nan
0.0 0.0 0.0 0.0 0.0 0.0 0.0 0.0 0.0 0.0 0.3 0.0 0.0 0.0 0.0 0.0 0.0 0.0 0.0 nan nan nan nan nan nan nan nan nan nan nan nan nan nan nan nan nan nan nan
0.0 0.0 0.0 0.0 0.0 0.0 0.0 0.0 0.0 0.0 0.0 0.0 0.0 0.0 0.0 0.0 0.0 0.0 0.0 0.0 0.0 nan nan nan nan nan nan nan nan nan nan nan nan nan nan nan nan nan
0.0 0.0 0.0 0.0 0.0 0.0 0.0 0.0 0.0 0.0 0.0 0.0 0.0 0.0 0.0 0.0 0.0 0.0 0.0 0.0 0.0 nan nan nan nan nan nan nan nan nan nan nan nan nan nan nan nan nan
0.0 0.0 0.0 0.0 0.0 0.0 0.0 0.0 0.0 0.0 0.0 0.1 0.0 0.0 0.0 0.0 0.0 0.0 0.0 0.0 0.0 nan nan nan nan nan nan nan nan nan nan nan nan nan nan nan nan nan
0.0 0.0 0.0 0.0 0.0 0.0 0.0 0.0 0.0 0.0 0.0 0.1 0.0 0.0 0.0 0.0 0.0 0.0 0.0 0.0 0.0 0.0 nan nan nan nan nan nan nan nan nan nan nan nan nan nan nan nan
0.0 0.0 0.0 nan nan nan 0.0 0.0 0.0 0.0 0.1 0.1 0.0 0.0 0.0 0.0 0.0 0.0 0.0 0.0 0.0 0.0 0.0 0.0 0.0 0.0 0.0 nan nan nan nan nan nan nan nan nan nan nan
0.0 0.0 0.0 0.0 0.0 nan nan nan nan 0.1 0.1 0.3 0.1 0.1 0.0 0.0 0.0 0.0 0.0 0.0 0.1 0.0 0.0 0.1 0.0 0.0 0.0 0.0 nan nan nan nan nan nan nan nan nan nan
0.0 0.0 0.0 0.0 nan 0.0 nan nan nan nan 0.0 0.2 0.3 0.1 0.3 0.0 0.0 0.0 0.0 0.0 0.0 0.0 0.1 0.3 0.3 0.2 0.0 0.0 nan nan nan nan nan nan nan nan nan nan
0.0 0.0 0.0 0.0 0.0 0.0 0.1 0.2 0.0 0.0 0.0 0.0 0.1 0.0 0.0 0.0 0.0 0.0 0.0 0.0 0.2 0.0 0.0 1.9 0.5 0.7 0.4 0.1 nan nan nan nan nan nan nan nan nan nan
0.0 0.0 0.0 0.0 nan nan 0.2 0.5 0.1 0.0 nan nan nan nan nan nan nan 0.8 1.6 2.0 3.6 0.2 0.2 0.9 0.8 0.9 0.6 0.5 0.3 nan nan nan nan nan nan nan nan nan
0.1 0.0 nan 0.0 nan nan 1.3 0.9 1.4 0.1 0.0 0.0 0.0 0.0 nan nan nan 0.0 0.3 1.7 1.3 1.5 0.2 0.7 0.2 0.5 1.7 0.7 0.5 0.5 0.4 nan nan nan nan nan nan 0.1
0.8 0.7 0.5 nan nan nan nan 1.2 1.7 0.1 0.1 0.4 0.1 0.1 0.0 0.1 0.0 0.0 0.1 0.5 1.1 0.6 0.0 0.1 0.5 0.4 0.8 0.9 0.9 0.7 0.6 0.8 0.5 0.4 nan nan nan 0.1
0.8 0.9 1.2 nan nan nan 0.8 nan nan 0.4 3.6 3.6 2.7 1.6 1.4 1.1 0.2 0.4 0.2 0.3 0.2 0.1 0.0 0.1 1.7 0.4 0.6 1.2 1.1 0.8 0.9 1.1 0.8 0.9 0.8 nan nan nan
2.3 1.9 nan nan nan 1.3 nan nan 0.5 3.3 4.3 5.5 3.2 1.8 1.2 0.5 0.2 0.6 0.3 0.2 0.2 0.1 0.1 0.3 1.1 0.2 1.0 1.3 1.8 1.3 1.4 1.1 1.4 1.5 1.4 0.8 0.7 0.6
0.3 1.8 0.7 1.7 0.9 1.2 1.5 1.8 2.3 3.1 3.8 4.1 2.7 1.4 1.1 1.5 1.8 1.5 2.6 1.7 2.1 2.7 0.3 0.3 0.4 0.4 2.0 0.9 0.6 1.3 1.0 2.0 1.2 1.3 1.5 1.7 1.0 0.8
2.9 5.3 3.0 2.4 2.3 1.7 2.0 2.0 1.7 1.8 2.6 3.9 3.8 2.6 1.9 1.6 2.1 1.7 1.6 1.5 3.2 2.0 2.2 1.4 0.3 0.4 0.9 0.6 3.3 0.9 1.0 0.9 0.9 1.4 1.7 1.4 1.1 1.1
3.0 4.5 9.4 10.8 6.4 2.8 3.9 3.2 2.7 2.3 2.1 2.7 4.2 2.8 3.0 3.3 2.7 2.6 2.1 2.5 3.2 2.5 1.9 1.3 2.5 2.6 2.4 2.5 1.5 1.9 0.8 0.9 0.9 0.9 1.2 2.3 1.0 1.0
5.3 4.9 11.2 13.8 7.6 2.5 2.7 2.7 4.0 3.7 2.1 3.0 4.0 5.3 5.3 3.7 4.3 3.7 4.2 3.3 3.5 2.1 1.7 2.0 2.5 3.5 4.6 7.3 2.6 nan 3.1 1.3 2.8 3.1 1.9 2.1 1.8 2.2
2.6 4.8 7.3 7.8 3.6 2.4 2.4 3.0 3.6 5.4 5.5 4.5 6.5 10.2 11.7 7.7 6.1 4.1 3.5 5.7 3.5 2.0 1.5 0.9 1.5 2.0 3.0 6.2 9.6 7.2 nan 4.3 3.7 4.1 2.7 2.1 1.9 nan
2.9 2.5 5.5 3.7 3.7 2.8 9.4 11.2 14.2 12.8 13.6 17.7 9.2 9.5 20.9 5.7 6.5 4.2 4.6 3.8 3.2 1.5 1.7 1.7 1.6 0.1 1.4 3.2 16.4 7.9 7.0 nan 2.5 2.3 1.7 2.7 1.9 1.4
5.2 3.1 3.2 3.3 5.5 5.0 11.5 19.4 17.7 17.2 12.6 8.8 18.9 26.2 24.0 10.6 9.5 8.1 9.9 9.0 3.0 3.8 2.1 1.6 0.9 0.7 2.5 1.9 2.6 10.0 4.2 4.3 nan nan nan nan 3.1 4.0
9.7 3.8 5.8 7.6 6.3 7.9 4.1 9.9 4.4 21.9 9.1 9.3 8.8 9.7 41.7 14.1 6.9 7.1 8.5 5.2 3.2 3.6 2.4 2.7 1.3 1.1 1.4 1.4 2.2 3.9 3.2 6.1 2.5 2.3 5.5 nan nan nan

GFSNE_prec_sndepth_042.txt.gz
Snowfall_Accumulation
0.0 0.0 0.0 0.0 0.0 0.0 0.0 0.0 0.2 0.7 0.1 0.0 0.0 0.0 0.0 0.0 0.0 0.0 0.0 nan nan nan nan nan nan nan nan nan nan nan nan nan nan nan nan nan nan nan
0.0 0.0 0.0 0.0 0.0 0.0 0.0 0.0 0.0 0.0 0.3 0.0 0.0 0.0 0.0 0.0 0.0 0.0 0.0 nan nan nan nan nan nan nan nan nan nan nan nan nan nan nan nan nan nan nan
0.0 0.0 0.0 0.0 0.0 0.0 0.0 0.0 0.0 0.0 0.0 0.0 0.0 0.0 0.0 0.0 0.0 0.0 0.0 0.0 0.0 nan nan nan nan nan nan nan nan nan nan nan nan nan nan nan nan nan
0.0 0.0 0.0 0.0 0.0 0.0 0.0 0.0 0.0 0.0 0.0 0.0 0.0 0.0 0.0 0.0 0.0 0.0 0.0 0.0 0.0 nan nan nan nan nan nan nan nan nan nan nan nan nan nan nan nan nan
0.0 0.0 0.0 0.0 0.0 0.0 0.0 0.0 0.0 0.0 0.0 0.1 0.0 0.0 0.0 0.0 0.0 0.0 0.0 0.0 0.0 nan nan nan nan nan nan nan nan nan nan nan nan nan nan nan nan nan
0.0 0.0 0.0 0.0 0.0 0.0 0.0 0.0 0.0 0.0 0.0 0.1 0.0 0.0 0.0 0.0 0.0 0.0 0.0 0.0 0.0 0.0 nan nan nan nan nan nan nan nan nan nan nan nan nan nan nan nan
0.0 0.0 0.0 nan nan nan 0.0 0.0 0.0 0.0 0.1 0.1 0.0 0.0 0.0 0.0 0.0 0.0 0.0 0.0 0.0 0.0 0.0 0.0 0.0 0.0 0.0 nan nan nan nan nan nan nan nan nan nan nan
0.0 0.0 0.0 0.0 0.0 nan nan nan nan 0.1 0.1 0.4 0.2 0.1 0.0 0.0 0.0 0.1 0.0 0.0 0.2 0.0 0.0 0.1 0.0 0.0 0.0 0.0 nan nan nan nan nan nan nan nan nan nan
0.0 0.0 0.0 0.0 nan 0.0 nan nan nan nan 0.0 0.2 0.4 0.3 0.4 0.0 0.0 0.0 0.0 0.0 0.0 0.0 0.1 0.3 0.3 0.2 0.0 0.0 nan nan nan nan nan nan nan nan nan nan
0.0 0.0 0.0 0.0 0.0 0.0 0.1 0.2 0.0 0.0 0.0 0.0 0.1 0.0 0.0 0.0 0.0 0.0 0.0 0.0 0.2 0.0 0.0 1.9 0.5 0.7 0.3 0.1 nan nan nan nan nan nan nan nan nan nan
0.0 0.0 0.0 0.0 nan nan 0.2 0.4 0.1 0.0 nan nan nan nan nan nan nan 0.8 1.6 2.0 3.6 0.2 0.2 0.9 0.7 0.9 0.6 0.5 0.3 nan nan nan nan nan nan nan nan nan
0.0 0.0 nan 0.0 nan nan 1.2 0.9 1.4 0.1 0.0 0.0 0.0 0.0 nan nan nan 0.0 0.6 2.6 1.8 1.7 0.2 0.7 0.2 0.7 1.9 0.9 0.5 0.5 0.4 nan nan nan nan nan nan 0.1
0.8 0.6 0.4 nan nan nan nan 1.1 1.7 0.1 0.1 0.4 0.1 0.1 0.0 0.1 0.0 0.0 0.1 0.6 1.4 0.8 0.0 0.1 0.5 0.4 0.7 0.9 0.8 0.7 0.6 0.7 0.5 0.3 nan nan nan 0.1
0.8 0.8 1.1 nan nan nan 0.8 nan nan 0.4 3.6 3.6 2.7 1.6 1.4 1.1 0.2 0.4 0.2 0.3 0.3 0.7 0.0 0.1 1.7 0.4 0.6 1.1 1.1 0.8 1.0 1.0 0.8 0.9 0.7 nan nan nan
2.1 1.8 nan nan nan 1.3 nan nan 0.5 3.2 4.3 5.5 3.2 1.7 1.2 0.5 0.2 0.6 0.2 0.2 0.2 0.2 0.1 0.3 1.1 0.2 1.0 1.3 2.0 1.9 1.4 1.2 1.3 1.4 1.3 0.8 0.7 0.5
0.3 1.7 0.7 1.6 0.9 1.1 1.4 1.6 2.1 3.0 3.7 4.0 2.7 1.4 1.0 1.5 1.8 1.4 2.5 1.7 2.0 2.6 1.0 0.3 0.3 0.3 1.9 0.9 0.7 1.3 1.0 2.1 1.2 1.3 1.4 1.6 1.0 0.7
2.8 5.1 2.8 2.2 2.2 1.7 1.9 1.9 1.7 1.7 2.6 3.9 3.8 2.6 1.9 1.6 2.1 1.7 1.6 1.5 3.2 2.0 2.2 1.6 0.4 0.5 0.9 0.6 3.2 0.9 0.9 0.9 0.9 1.4 1.6 1.4 1.1 1.1
2.9 4.5 9.3 10.5 6.4 2.8 3.8 3.1 2.7 2.3 2.1 2.7 4.1 2.8 2.9 3.3 2.7 2.6 2.1 2.5 3.2 2.4 1.9 1.2 2.6 2.9 2.4 2.4 1.5 1.8 0.8 1.1 0.8 0.9 1.1 2.2 1.0 0.9
5.2 4.9 11.1 13.7 7.6 2.4 2.6 2.6 4.0 3.6 2.1 3.0 4.0 5.3 5.3 3.7 4.2 3.7 4.2 3.3 3.4 2.1 1.7 1.9 2.5 3.5 5.0 8.2 2.6 nan 4.7 1.4 2.7 3.0 1.8 2.1 2.8 2.4
2.6 4.8 7.2 7.4 3.4 2.3 2.3 2.9 3.5 5.4 5.5 4.4 6.4 10.2 11.6 7.7 6.1 4.1 3.5 5.7 3.5 2.0 1.5 0.9 1.5 1.9 3.2 6.8 10.1 7.1 nan 4.2 3.6 4.0 2.7 2.0 1.9 nan
2.8 2.5 5.2 3.5 3.5 2.6 9.0 11.0 14.1 12.8 13.6 17.5 9.1 9.5 20.8 5.7 6.4 4.2 4.6 3.7 3.2 1.4 1.7 1.7 1.6 0.1 1.3 3.0 16.5 8.0 7.0 nan 2.5 2.3 1.6 2.6 1.9 1.4
4.9 2.9 3.0 3.1 5.2 4.8 11.4 19.3 17.6 17.1 12.6 8.8 18.8 26.0 23.8 10.6 9.4 8.1 9.9 8.9 3.0 3.8 2.0 1.6 0.9 0.7 2.6 2.2 3.0 10.0 4.2 4.2 nan nan nan nan 3.2 4.4
9.0 3.5 5.5 7.2 5.9 7.5 4.1 9.8 4.3 21.7 9.1 9.3 8.8 9.6 41.3 14.0 6.9 7.0 8.4 5.2 3.2 3.5 2.4 2.7 1.3 1.0 1.5 1.3 2.1 4.0 3.2 6.0 2.5 2.3 5.4 nan nan nan

GFSNE_prec_sndepth_045.txt.gz
Snowfall_Accumulation
0.0 0.0 0.0 0.0 0.0 0.0 0.0 0.0 0.2 0.7 0.1 0.0 0.0 0.0 0.0 0.0 0.0 0.0 0.0 nan nan nan nan nan nan nan nan nan nan nan nan nan nan nan nan nan nan nan
0.0 0.0 0.0 0.0 0.0 0.0 0.0 0.0 0.0 0.0 0.3 0.0 0.0 0.0 0.0 0.0 0.0 0.0 0.0 nan nan nan nan nan nan nan nan nan nan nan nan nan nan nan nan nan nan nan
0.0 0.0 0.0 0.0 0.0 0.0 0.0 0.0 0.0 0.0 0.0 0.0 0.0 0.0 0.0 0.0 0.0 0.0 0.0 0.0 0.0 nan nan nan nan nan nan nan nan nan nan nan nan nan nan nan nan nan
0.0 0.0 0.0 0.0 0.0 0.0 0.0 0.0 0.0 0.0 0.0 0.0 0.0 0.0 0.0 0.0 0.0 0.0 0.0 0.0 0.0 nan nan nan nan nan nan nan nan nan nan nan nan nan nan nan nan nan
0.0 0.0 0.0 0.0 0.0 0.0 0.0 0.0 0.0 0.0 0.0 0.1 0.0 0.0 0.0 0.0 0.0 0.0 0.0 0.0 0.0 nan nan nan nan nan nan nan nan nan nan nan nan nan nan nan nan nan
0.0 0.0 0.0 0.0 0.0 0.0 0.0 0.0 0.0 0.0 0.0 0.1 0.0 0.0 0.0 0.0 0.0 0.0 0.0 0.0 0.0 0.0 nan nan nan nan nan nan nan nan nan nan nan nan nan nan nan nan
0.0 0.0 0.0 nan nan nan 0.0 0.0 0.0 0.0 0.1 0.1 0.0 0.0 0.0 0.0 0.0 0.2 0.0 0.0 0.0 0.0 0.0 0.0 0.0 0.0 0.0 nan nan nan nan nan nan nan nan nan nan nan
0.0 0.0 0.0 0.0 0.0 nan nan nan nan 0.1 0.1 0.4 0.2 0.2 0.0 0.1 0.2 0.1 0.0 0.0 0.2 0.0 0.0 0.1 0.0 0.0 0.0 0.0 nan nan nan nan nan nan nan nan nan nan
0.0 0.0 0.0 0.0 nan 0.0 nan nan nan nan 0.0 0.2 0.4 0.4 0.4 0.0 0.0 0.0 0.0 0.0 0.0 0.0 0.1 0.3 0.2 0.2 0.0 0.0 nan nan nan nan nan nan nan nan nan nan
0.0 0.0 0.0 0.0 0.0 0.0 0.1 0.1 0.0 0.0 0.0 0.0 0.1 0.0 0.0 0.0 0.0 0.0 0.0 0.0 0.1 0.0 0.0 2.3 0.5 0.6 0.3 0.1 nan nan nan nan nan nan nan nan nan nan
0.0 0.0 0.0 0.0 nan nan 0.2 0.4 0.1 0.0 nan nan nan nan nan nan nan 0.9 1.7 2.3 3.6 0.2 0.2 0.9 0.7 0.9 0.6 0.5 0.3 nan nan nan nan nan nan nan nan nan
0.0 0.0 nan 0.0 nan nan 1.2 0.9 1.3 0.1 0.0 0.0 0.0 0.0 nan nan nan 0.0 0.6 2.7 1.8 1.7 0.2 1.5 0.3 0.7 2.0 0.9 0.5 0.5 0.4 nan nan nan nan nan nan 0.1
0.8 0.6 0.4 nan nan nan nan 1.1 1.6 0.1 0.1 0.4 0.1 0.1 0.0 0.1 0.0 0.0 0.1 0.6 1.8 0.9 0.1 1.3 0.6 0.4 0.7 0.9 0.8 0.7 0.6 0.8 0.6 0.3 nan nan nan 0.1
0.8 0.8 1.1 nan nan nan 0.8 nan nan 0.4 3.6 3.6 2.7 1.6 1.4 1.1 0.2 0.4 0.2 0.3 0.3 0.8 0.0 0.4 2.0 0.5 0.7 1.2 1.2 0.8 1.3 1.1 0.9 0.9 0.7 nan nan nan
2.1 1.8 nan nan nan 1.3 nan nan 0.5 3.2 4.3 5.5 3.2 1.7 1.2 0.5 0.2 0.6 0.2 0.2 0.2 0.2 0.4 0.4 1.1 0.2 1.0 1.3 2.0 1.9 2.2 1.3 1.4 1.6 1.3 0.8 0.7 0.5
0.3 1.7 0.7 1.6 0.9 1.1 1.4 1.6 2.1 3.0 3.7 4.0 2.7 1.4 1.0 1.5 1.8 1.4 2.5 1.7 2.0 2.6 1.0 0.3 0.6 0.4 1.9 0.9 0.7 1.3 1.0 2.7 1.2 1.3 1.4 1.7 1.0 0.7
2.9 5.2 2.9 2.2 2.2 1.7 1.9 1.9 1.7 1.7 2.6 3.9 3.8 2.6 1.9 1.6 2.1 1.6 1.6 1.5 3.2 2.0 2.1 1.6 0.4 0.5 0.9 0.6 3.2 0.9 0.9 1.0 1.2 1.4 1.7 1.4 1.1 1.1
3.0 4.5 9.3 10.5 6.4 2.8 3.8 3.1 2.7 2.3 2.1 2.7 4.1 2.8 2.9 3.3 2.7 2.6 2.1 2.5 3.1 2.4 1.9 1.2 2.6 2.9 2.7 2.5 1.5 1.9 0.9 1.4 0.9 0.9 1.1 2.3 1.0 1.0
5.3 4.9 11.1 13.7 7.6 2.5 2.6 2.6 4.0 3.6 2.1 3.0 4.0 5.3 5.3 3.7 4.2 3.7 4.2 3.3 3.4 2.1 1.6 1.9 2.5 3.5 5.1 8.5 3.0 nan 5.2 1.8 3.1 3.0 1.9 2.4 2.9 2.4
2.6 4.8 7.2 7.4 3.4 2.3 2.3 2.9 3.5 5.4 5.5 4.4 6.4 10.2 11.6 7.7 6.1 4.1 3.5 5.7 3.4 2.0 1.5 0.9 1.5 1.9 3.4 7.0 10.3 7.1 nan 4.2 3.6 4.1 2.7 2.0 2.0 nan
2.8 2.5 5.2 3.5 3.5 2.6 9.0 11.0 14.1 12.7 13.5 17.5 9.1 9.5 20.8 5.7 6.4 4.2 4.6 3.7 3.2 1.4 1.7 1.7 1.6 0.1 1.4 3.1 16.7 8.2 7.0 nan 2.5 2.3 1.8 2.8 1.9 1.4
4.9 3.0 3.0 3.1 5.2 4.8 11.3 19.2 17.5 17.0 12.6 8.8 18.7 25.9 23.7 10.6 9.4 8.1 9.9 8.9 3.0 3.8 2.0 1.5 0.9 0.7 2.6 2.2 3.3 10.1 4.2 4.2 nan nan nan nan 3.7 4.6
9.0 3.5 5.5 7.1 5.9 7.5 4.1 9.8 4.3 21.6 9.1 9.3 8.8 9.6 41.0 14.0 6.9 7.0 8.4 5.2 3.2 3.5 2.4 2.7 1.3 1.0 1.6 1.3 2.3 4.2 3.2 6.1 2.5 2.3 5.5 nan nan nan

GFSNE_prec_sndepth_048.txt.gz
Snowfall_Accumulation
0.0 0.0 0.0 0.0 0.0 0.0 0.0 0.0 0.3 0.8 0.1 0.0 0.0 0.0 0.0 0.0 0.0 0.0 0.0 nan nan nan nan nan nan nan nan nan nan nan nan nan nan nan nan nan nan nan
0.0 0.0 0.0 0.0 0.0 0.0 0.0 0.0 0.0 0.0 0.3 0.0 0.0 0.0 0.0 0.0 0.0 0.0 0.0 nan nan nan nan nan nan nan nan nan nan nan nan nan nan nan nan nan nan nan
0.0 0.0 0.0 0.0 0.0 0.0 0.0 0.0 0.0 0.0 0.0 0.0 0.0 0.0 0.0 0.0 0.0 0.0 0.0 0.0 0.0 nan nan nan nan nan nan nan nan nan nan nan nan nan nan nan nan nan
0.0 0.0 0.0 0.0 0.0 0.0 0.0 0.0 0.0 0.0 0.0 0.0 0.0 0.0 0.0 0.0 0.0 0.0 0.0 0.0 0.0 nan nan nan nan nan nan nan nan nan nan nan nan nan nan nan nan nan
0.0 0.0 0.0 0.0 0.0 0.0 0.0 0.0 0.0 0.0 0.0 0.1 0.0 0.0 0.0 0.0 0.0 0.0 0.0 0.0 0.0 nan nan nan nan nan nan nan nan nan nan nan nan nan nan nan nan nan
0.0 0.0 0.0 0.0 0.0 0.0 0.0 0.0 0.0 0.0 0.0 0.1 0.0 0.0 0.0 0.0 0.0 0.0 0.1 0.0 0.0 0.0 nan nan nan nan nan nan nan nan nan nan nan nan nan nan nan nan
0.0 0.0 0.0 nan nan nan 0.0 0.0 0.0 0.0 0.1 0.1 0.0 0.0 0.0 0.0 0.0 0.3 0.0 0.0 0.0 0.0 0.0 0.0 0.0 0.0 0.0 nan nan nan nan nan nan nan nan nan nan nan
0.0 0.0 0.0 0.0 0.0 nan nan nan nan 0.1 0.1 0.4 0.2 0.2 0.0 0.1 0.2 0.1 0.0 0.0 0.2 0.0 0.0 0.1 0.0 0.0 0.0 0.0 nan nan nan nan nan nan nan nan nan nan
0.0 0.0 0.0 0.0 nan 0.0 nan nan nan nan 0.0 0.2 0.4 0.4 0.4 0.0 0.0 0.0 0.0 0.0 0.0 0.0 0.1 0.3 0.2 0.2 0.0 0.0 nan nan nan nan nan nan nan nan nan nan
0.0 0.0 0.0 0.0 0.0 0.0 0.1 0.1 0.0 0.0 0.0 0.0 0.1 0.0 0.0 0.0 0.0 0.0 0.3 0.3 0.2 0.0 0.0 2.4 0.5 0.6 0.3 0.1 nan nan nan nan nan nan nan nan nan nan
0.0 0.0 0.0 0.0 nan nan 0.2 0.4 0.1 0.0 nan nan nan nan nan nan nan 1.0 1.7 2.3 3.6 0.2 0.2 0.9 0.7 0.9 0.6 0.5 0.3 nan nan nan nan nan nan nan nan nan
0.0 0.0 nan 0.0 nan nan 1.2 0.9 1.3 0.1 0.0 0.0 0.0 0.0 nan nan nan 0.0 0.6 2.8 1.9 1.7 0.2 2.1 0.3 1.0 2.1 0.9 0.5 0.5 0.4 nan nan nan nan nan nan 0.1
0.8 0.6 0.4 nan nan nan nan 1.1 1.6 0.1 0.1 0.4 0.1 0.1 0.0 0.1 0.0 0.0 0.1 0.6 1.8 0.9 0.1 1.7 0.9 0.7 1.0 0.9 0.8 0.7 0.6 0.8 0.6 0.3 nan nan nan 0.2
0.7 0.8 1.1 nan nan nan 0.8 nan nan 0.4 3.6 3.6 2.7 1.6 1.4 1.1 0.2 0.4 0.2 0.3 0.3 0.8 0.0 1.2 2.9 0.7 0.8 1.2 1.2 0.8 1.3 1.5 0.9 0.9 0.7 nan nan nan
2.1 1.8 nan nan nan 1.3 nan nan 0.5 3.2 4.3 5.5 3.2 1.7 1.2 0.5 0.2 0.6 0.2 0.2 0.2 0.2 0.4 0.5 1.6 0.3 1.1 1.4 2.0 1.9 2.4 1.3 1.5 1.6 1.3 0.8 0.7 0.5
0.3 1.7 0.7 1.6 0.9 1.1 1.4 1.6 2.1 3.0 3.7 4.0 2.7 1.4 1.0 1.5 1.8 1.4 2.5 1.6 2.0 2.6 1.0 0.3 0.6 0.4 2.1 0.9 0.7 1.3 1.0 2.8 1.3 1.3 1.4 1.7 1.0 0.7
3.0 5.3 2.9 2.3 2.3 1.7 1.9 1.9 1.7 1.7 2.6 3.9 3.8 2.6 1.9 1.6 2.1 1.6 1.5 1.5 3.2 2.0 2.1 1.6 0.4 0.5 1.0 0.8 3.2 0.9 0.9 1.0 1.9 1.4 1.7 1.4 1.1 1.1
3.1 4.6 9.3 10.5 6.4 2.8 3.8 3.1 2.7 2.3 2.1 2.7 4.1 2.8 2.9 3.3 2.7 2.6 2.1 2.5 3.1 2.4 1.9 1.2 2.6 2.9 2.7 2.7 1.5 1.9 1.1 1.7 0.9 0.9 1.1 2.3 1.0 1.0
5.4 4.9 11.1 13.6 7.6 2.4 2.6 2.6 4.0 3.6 2.0 3.0 4.0 5.3 5.3 3.7 4.2 3.7 4.2 3.3 3.4 2.1 1.6 1.9 2.4 3.5 5.1 8.5 3.1 nan 5.2 2.2 3.4 3.0 1.9 2.4 3.0 2.5
2.7 4.8 7.2 7.4 3.4 2.3 2.3 2.9 3.5 5.4 5.5 4.4 6.4 10.2 11.6 7.7 6.1 4.1 3.5 5.7 3.4 2.0 1.4 0.9 1.5 1.9 3.5 7.2 10.5 7.1 nan 4.2 3.7 4.1 2.7 2.0 2.2 nan
2.8 2.5 5.2 3.5 3.5 2.6 9.0 11.0 14.1 12.7 13.5 17.5 9.1 9.4 20.7 5.7 6.4 4.2 4.6 3.7 3.2 1.4 1.7 1.7 1.6 0.1 1.5 3.3 16.7 8.3 7.0 nan 2.5 2.5 2.1 2.8 1.9 1.7
5.0 3.0 3.1 3.2 5.2 4.8 11.3 19.2 17.5 17.0 12.5 8.8 18.7 25.8 23.6 10.5 9.4 8.1 9.9 8.9 3.0 3.8 2.0 1.5 0.9 0.7 2.7 2.5 3.6 10.2 4.2 4.2 nan nan nan nan 4.0 4.7
9.1 3.6 5.5 7.2 5.9 7.5 4.1 9.8 4.3 21.5 9.0 9.3 8.8 9.6 40.8 14.0 6.9 7.0 8.4 5.2 3.2 3.5 2.4 2.7 1.3 1.0 1.6 1.4 2.4 4.3 3.3 6.1 2.5 2.3 5.5 nan nan nan

GFSNE_prec_sndepth_051.txt.gz
Snowfall_Accumulation
0.0 0.0 0.0 0.0 0.0 0.0 0.0 0.0 0.3 0.9 0.1 0.0 0.0 0.0 0.0 0.0 0.0 0.0 0.0 nan nan nan nan nan nan nan nan nan nan nan nan nan nan nan nan nan nan nan
0.0 0.0 0.0 0.0 0.0 0.0 0.0 0.0 0.0 0.0 0.3 0.0 0.0 0.0 0.0 0.0 0.0 0.0 0.0 nan nan nan nan nan nan nan nan nan nan nan nan nan nan nan nan nan nan nan
0.0 0.0 0.0 0.0 0.0 0.0 0.0 0.0 0.0 0.0 0.0 0.0 0.0 0.0 0.0 0.0 0.0 0.0 0.0 0.0 0.0 nan nan nan nan nan nan nan nan nan nan nan nan nan nan nan nan nan
0.0 0.0 0.0 0.0 0.0 0.0 0.0 0.0 0.0 0.0 0.0 0.0 0.0 0.0 0.0 0.0 0.0 0.0 0.0 0.0 0.0 nan nan nan nan nan nan nan nan nan nan nan nan nan nan nan nan nan
0.0 0.0 0.0 0.0 0.0 0.0 0.0 0.0 0.0 0.0 0.0 0.1 0.0 0.0 0.0 0.0 0.0 0.0 0.0 0.0 0.0 nan nan nan nan nan nan nan nan nan nan nan nan nan nan nan nan nan
0.0 0.0 0.0 0.0 0.0 0.0 0.0 0.0 0.0 0.0 0.0 0.1 0.0 0.0 0.0 0.0 0.0 0.0 0.1 0.0 0.0 0.0 nan nan nan nan nan nan nan nan nan nan nan nan nan nan nan nan
0.0 0.0 0.0 nan nan nan 0.0 0.0 0.0 0.0 0.1 0.1 0.0 0.0 0.0 0.0 0.0 0.3 0.0 0.0 0.0 0.0 0.0 0.0 0.0 0.0 0.0 nan nan nan nan nan nan nan nan nan nan nan
0.0 0.0 0.0 0.0 0.0 nan nan nan nan 0.1 0.1 0.4 0.2 0.2 0.0 0.1 0.2 0.1 0.0 0.0 0.3 0.0 0.0 0.1 0.0 0.0 0.0 0.0 nan nan nan nan nan nan nan nan nan nan
0.0 0.0 0.0 0.0 nan 0.0 nan nan nan nan 0.0 0.2 0.4 0.4 0.4 0.0 0.0 0.0 0.0 0.0 0.2 0.0 0.1 0.3 0.2 0.2 0.0 0.0 nan nan nan nan nan nan nan nan nan nan
0.0 0.0 0.0 0.0 0.0 0.0 0.1 0.1 0.0 0.0 0.0 0.0 0.1 0.0 0.0 0.0 0.0 0.1 0.6 0.4 0.2 0.0 0.0 2.4 0.5 0.6 0.3 0.1 nan nan nan nan nan nan nan nan nan nan
0.0 0.0 0.0 0.0 nan nan 0.2 0.4 0.1 0.0 nan nan nan nan nan nan nan 1.0 1.7 2.3 3.6 0.2 0.2 0.9 0.7 0.9 0.6 0.5 0.3 nan nan nan nan nan nan nan nan nan
0.0 0.0 nan 0.0 nan nan 1.2 0.9 1.3 0.1 0.0 0.0 0.0 0.0 nan nan nan 0.0 0.6 2.9 1.9 1.8 0.2 2.1 0.3 1.2 2.3 0.9 0.5 0.5 0.4 nan nan nan nan nan nan 0.1
0.8 0.6 0.4 nan nan nan nan 1.1 1.6 0.1 0.1 0.3 0.1 0.1 0.0 0.1 0.0 0.0 0.1 0.6 1.8 0.9 0.1 1.9 0.9 0.7 1.2 1.0 0.9 0.7 0.6 0.8 0.6 0.4 nan nan nan 0.2
0.7 0.8 1.1 nan nan nan 0.8 nan nan 0.4 3.6 3.6 2.7 1.6 1.4 1.1 0.2 0.4 0.2 0.3 0.3 0.9 0.0 1.2 3.6 1.1 1.0 1.2 1.2 0.8 1.3 1.5 1.1 0.9 0.8 nan nan nan
2.1 1.7 nan nan nan 1.3 nan nan 0.5 3.2 4.3 5.5 3.2 1.7 1.2 0.5 0.2 0.6 0.2 0.2 0.2 0.2 0.4 0.5 1.6 0.3 1.1 1.6 2.2 1.9 2.4 1.3 1.6 1.6 1.3 0.8 0.7 0.5
0.3 1.7 0.7 1.7 0.9 1.1 1.4 1.6 2.1 3.0 3.7 4.0 2.7 1.4 1.0 1.5 1.8 1.4 2.5 1.6 2.0 2.6 1.0 0.3 0.6 0.4 2.1 1.0 0.8 1.3 1.0 3.0 1.3 1.4 1.5 1.7 1.0 0.8
3.0 5.5 3.2 2.4 2.4 1.7 1.9 1.9 1.7 1.7 2.6 3.9 3.8 2.6 1.9 1.6 2.1 1.6 1.5 1.5 3.2 2.0 2.1 1.5 0.4 0.4 1.0 1.2 3.3 0.9 0.9 1.0 2.0 1.4 1.7 1.6 1.1 1.1
3.4 4.8 9.3 10.5 6.6 2.8 3.8 3.1 2.7 2.3 2.1 2.7 4.1 2.8 2.9 3.3 2.7 2.6 2.1 2.5 3.1 2.4 1.9 1.2 2.6 2.9 2.7 2.7 1.6 1.9 1.1 2.8 1.0 0.9 1.1 2.4 1.0 1.1
5.9 4.9 11.1 13.6 7.6 2.5 2.6 2.6 4.0 3.6 2.0 3.0 4.0 5.3 5.3 3.7 4.2 3.7 4.2 3.3 3.4 2.1 1.6 1.9 2.4 3.5 5.1 8.6 3.1 nan 5.2 2.3 3.4 3.0 1.9 2.4 3.0 2.5
2.8 4.8 7.2 7.4 3.5 2.4 2.3 2.9 3.5 5.4 5.5 4.4 6.4 10.1 11.6 7.7 6.1 4.1 3.5 5.7 3.4 2.0 1.4 0.9 1.5 1.9 3.7 7.3 10.6 7.1 nan 4.2 3.7 4.1 2.7 2.0 2.3 nan
2.8 2.6 5.2 3.5 3.5 2.8 9.0 11.0 14.0 12.7 13.5 17.4 9.1 9.4 20.7 5.7 6.4 4.2 4.6 3.7 3.2 1.4 1.7 1.7 1.6 0.1 1.7 3.5 16.9 8.4 7.0 nan 2.6 2.6 2.2 2.9 2.0 1.7
5.0 3.1 3.2 3.3 5.4 4.8 11.4 19.1 17.4 16.9 12.5 8.8 18.6 25.7 23.6 10.5 9.4 8.1 9.9 8.9 3.0 3.8 2.0 1.5 0.9 0.7 2.7 2.7 3.9 10.2 4.2 4.2 nan nan nan nan 4.0 4.8
9.1 3.7 5.6 7.3 6.1 7.7 4.3 9.9 4.3 21.4 9.0 9.2 8.8 9.6 40.6 14.0 6.9 7.0 8.4 5.2 3.2 3.5 2.4 2.7 1.3 1.0 1.6 1.4 2.4 4.5 3.4 6.2 2.5 2.4 5.5 nan nan nan

GFSNE_prec_sndepth_054.txt.gz
Snowfall_Accumulation
0.0 0.0 0.0 0.0 0.0 0.0 0.0 0.0 0.3 0.9 0.1 0.0 0.0 0.0 0.0 0.0 0.0 0.0 0.0 nan nan nan nan nan nan nan nan nan nan nan nan nan nan nan nan nan nan nan
0.0 0.0 0.0 0.0 0.0 0.0 0.0 0.0 0.0 0.0 0.3 0.0 0.0 0.0 0.0 0.0 0.0 0.0 0.0 nan nan nan nan nan nan nan nan nan nan nan nan nan nan nan nan nan nan nan
0.0 0.0 0.0 0.0 0.0 0.0 0.0 0.0 0.0 0.0 0.0 0.0 0.0 0.0 0.0 0.0 0.0 0.0 0.0 0.0 0.0 nan nan nan nan nan nan nan nan nan nan nan nan nan nan nan nan nan
0.0 0.0 0.0 0.0 0.0 0.0 0.0 0.0 0.0 0.0 0.0 0.0 0.0 0.0 0.0 0.0 0.0 0.0 0.0 0.0 0.0 nan nan nan nan nan nan nan nan nan nan nan nan nan nan nan nan nan
0.0 0.0 0.0 0.0 0.0 0.0 0.0 0.0 0.0 0.0 0.0 0.1 0.0 0.0 0.0 0.0 0.0 0.0 0.0 0.0 0.0 nan nan nan nan nan nan nan nan nan nan nan nan nan nan nan nan nan
0.0 0.0 0.0 0.0 0.0 0.0 0.0 0.0 0.0 0.0 0.0 0.1 0.0 0.0 0.0 0.0 0.0 0.0 0.1 0.0 0.0 0.0 nan nan nan nan nan nan nan nan nan nan nan nan nan nan nan nan
0.0 0.0 0.0 nan nan nan 0.0 0.0 0.0 0.0 0.1 0.1 0.0 0.0 0.0 0.0 0.0 0.3 0.0 0.0 0.0 0.0 0.0 0.0 0.0 0.0 0.0 nan nan nan nan nan nan nan nan nan nan nan
0.0 0.0 0.0 0.0 0.0 nan nan nan nan 0.1 0.1 0.4 0.2 0.2 0.0 0.1 0.2 0.1 0.0 0.0 0.3 0.0 0.0 0.1 0.0 0.0 0.0 0.0 nan nan nan nan nan nan nan nan nan nan
0.0 0.0 0.0 0.0 nan 0.0 nan nan nan nan 0.0 0.2 0.4 0.4 0.4 0.0 0.0 0.0 0.0 0.1 0.2 0.0 0.1 0.3 0.2 0.2 0.0 0.0 nan nan nan nan nan nan nan nan nan nan
0.0 0.0 0.0 0.0 0.0 0.0 0.1 0.1 0.0 0.0 0.0 0.0 0.1 0.0 0.0 0.0 0.0 0.1 0.6 0.5 0.2 0.0 0.0 2.4 0.5 0.6 0.3 0.1 nan nan nan nan nan nan nan nan nan nan
0.0 0.0 0.0 0.0 nan nan 0.2 0.4 0.1 0.0 nan nan nan nan nan nan nan 1.0 1.7 2.3 3.6 0.2 0.2 0.9 0.7 0.8 0.6 0.5 0.3 nan nan nan nan nan nan nan nan nan
0.0 0.0 nan 0.0 nan nan 1.2 0.9 1.3 0.1 0.0 0.0 0.0 0.0 nan nan nan 0.0 0.6 2.9 1.9 1.8 0.2 2.1 0.3 1.3 2.4 0.9 0.5 0.5 0.4 nan nan nan nan nan nan 0.1
0.7 0.6 0.4 nan nan nan nan 1.1 1.6 0.1 0.1 0.3 0.1 0.1 0.0 0.1 0.0 0.0 0.1 0.6 1.8 1.0 0.1 2.1 0.9 0.7 1.4 1.1 0.9 0.7 0.6 0.8 0.6 0.4 nan nan nan 0.2
0.7 0.8 1.1 nan nan nan 0.8 nan nan 0.4 3.6 3.6 2.7 1.6 1.4 1.1 0.2 0.4 0.2 0.3 0.3 0.9 0.0 1.2 3.8 1.2 1.1 1.3 1.2 0.8 1.3 1.5 1.1 1.1 0.8 nan nan nan
2.1 1.7 nan nan nan 1.3 nan nan 0.5 3.2 4.3 5.5 3.2 1.7 1.2 0.5 0.2 0.6 0.2 0.2 0.2 0.1 0.4 0.5 1.6 0.3 1.2 1.7 2.5 2.0 2.5 1.3 1.6 1.7 1.4 0.8 0.7 0.5
0.3 1.7 0.7 1.7 0.9 1.2 1.5 1.8 2.2 3.0 3.8 4.0 2.7 1.4 1.0 1.5 1.8 1.4 2.5 1.6 2.0 2.6 1.0 0.3 0.6 0.4 2.1 1.0 1.2 1.6 1.0 3.5 1.3 1.4 1.5 1.7 1.1 1.1
3.1 5.6 3.3 2.6 2.6 1.9 2.1 2.0 1.8 1.8 2.7 3.9 3.8 2.6 1.9 1.6 2.1 1.6 1.5 1.5 3.2 2.0 2.1 1.5 0.4 0.4 0.9 1.2 3.5 0.9 1.0 1.1 2.3 1.5 1.7 1.6 1.1 1.1
4.4 5.2 9.3 10.5 6.6 2.9 4.0 3.2 2.8 2.3 2.1 2.7 4.1 2.8 2.9 3.3 2.7 2.6 2.1 2.5 3.1 2.4 1.9 1.2 2.6 2.9 2.6 2.7 1.8 1.9 1.2 3.7 1.1 0.9 1.1 2.4 1.0 1.3
6.8 5.1 11.1 13.6 7.6 2.6 2.8 2.7 4.0 3.6 2.1 3.0 4.0 5.3 5.3 3.7 4.2 3.7 4.2 3.3 3.4 2.1 1.6 1.9 2.4 3.5 5.1 8.6 3.0 nan 5.3 2.3 3.5 3.0 1.9 2.5 3.1 2.6
3.2 5.0 7.3 7.4 3.5 2.5 2.5 3.1 3.6 5.4 5.5 4.4 6.4 10.1 11.5 7.6 6.1 4.1 3.5 5.7 3.5 1.9 1.4 0.9 1.5 1.9 3.9 7.4 10.7 7.1 nan 4.3 3.8 4.2 2.7 2.0 2.3 nan
3.0 2.7 5.2 3.5 3.5 2.8 9.3 11.3 14.1 12.7 13.5 17.4 9.1 9.4 20.6 5.7 6.4 4.2 4.6 3.7 3.2 1.4 1.7 1.6 1.6 0.1 1.7 3.9 17.1 8.4 7.0 nan 2.8 2.7 2.2 2.9 2.0 1.8
5.0 3.1 3.2 3.4 5.6 5.1 11.5 19.3 17.6 17.0 12.5 8.7 18.5 25.6 23.5 10.5 9.4 8.1 9.9 8.9 3.0 3.8 2.0 1.5 0.9 0.7 2.7 2.7 4.0 10.4 4.3 4.3 nan nan nan nan 4.2 4.9
9.2 3.8 5.6 7.3 6.2 7.9 4.4 10.2 4.7 21.5 9.1 9.2 8.8 9.6 40.3 14.0 6.8 7.0 8.4 5.2 3.2 3.5 2.4 2.7 1.3 1.0 1.6 1.4 2.5 4.6 3.5 6.2 2.5 2.3 5.6 nan nan nan

GFSNE_prec_sndepth_057.txt.gz
Snowfall_Accumulation
0.0 0.0 0.0 0.0 0.0 0.0 0.0 0.0 0.2 0.7 0.0 0.0 0.0 0.0 0.0 0.0 0.0 0.0 0.0 nan nan nan nan nan nan nan nan nan nan nan nan nan nan nan nan nan nan nan
0.0 0.0 0.0 0.0 0.0 0.0 0.0 0.0 0.0 0.0 0.2 0.0 0.0 0.0 0.0 0.0 0.0 0.0 0.0 nan nan nan nan nan nan nan nan nan nan nan nan nan nan nan nan nan nan nan
0.0 0.0 0.0 0.0 0.0 0.0 0.0 0.0 0.0 0.0 0.0 0.0 0.0 0.0 0.0 0.0 0.0 0.0 0.0 0.0 0.0 nan nan nan nan nan nan nan nan nan nan nan nan nan nan nan nan nan
0.0 0.0 0.0 0.0 0.0 0.0 0.0 0.0 0.0 0.0 0.0 0.0 0.0 0.0 0.0 0.0 0.0 0.0 0.0 0.0 0.0 nan nan nan nan nan nan nan nan nan nan nan nan nan nan nan nan nan
0.0 0.0 0.0 0.0 0.0 0.0 0.0 0.0 0.0 0.0 0.0 0.0 0.0 0.0 0.0 0.0 0.0 0.0 0.0 0.0 0.0 nan nan nan nan nan nan nan nan nan nan nan nan nan nan nan nan nan
0.0 0.0 0.0 0.0 0.0 0.0 0.0 0.0 0.0 0.0 0.0 0.0 0.0 0.0 0.0 0.0 0.0 0.0 0.1 0.0 0.0 0.0 nan nan nan nan nan nan nan nan nan nan nan nan nan nan nan nan
0.0 0.0 0.0 nan nan nan 0.0 0.0 0.0 0.0 0.0 0.1 0.0 0.0 0.0 0.0 0.0 0.2 0.0 0.0 0.0 0.0 0.0 0.0 0.0 0.0 0.0 nan nan nan nan nan nan nan nan nan nan nan
0.0 0.0 0.0 0.0 0.0 nan nan nan nan 0.0 0.1 0.3 0.2 0.1 0.0 0.1 0.1 0.1 0.0 0.0 0.3 0.0 0.0 0.1 0.0 0.0 0.0 0.0 nan nan nan nan nan nan nan nan nan nan
0.0 0.0 0.0 0.0 nan 0.0 nan nan nan nan 0.0 0.2 0.3 0.3 0.3 0.0 0.0 0.0 0.0 0.1 0.2 0.0 0.1 0.3 0.2 0.2 0.0 0.0 nan nan nan nan nan nan nan nan nan nan
0.0 0.0 0.0 0.0 0.0 0.0 0.1 0.1 0.0 0.0 0.0 0.0 0.1 0.0 0.0 0.0 0.0 0.1 0.4 0.3 0.1 0.0 0.0 2.3 0.4 0.6 0.3 0.1 nan nan nan nan nan nan nan nan nan nan
0.0 0.0 0.0 0.0 nan nan 0.1 0.3 0.0 0.0 nan nan nan nan nan nan nan 0.9 1.6 2.2 3.5 0.2 0.1 0.8 0.7 0.8 0.5 0.4 0.3 nan nan nan nan nan nan nan nan nan
0.0 0.0 nan 0.0 nan nan 0.9 0.7 1.2 0.1 0.0 0.0 0.0 0.0 nan nan nan 0.0 0.6 2.7 1.8 1.7 0.2 2.0 0.2 1.2 2.3 0.8 0.4 0.4 0.3 nan nan nan nan nan nan 0.1
0.7 0.5 0.4 nan nan nan nan 0.9 1.4 0.1 0.1 0.3 0.1 0.0 0.0 0.0 0.0 0.0 0.0 0.6 1.7 0.9 0.0 1.9 0.9 0.7 1.4 1.1 0.7 0.6 0.5 0.6 0.5 0.3 nan nan nan 0.2
0.6 0.7 0.9 nan nan nan 0.7 nan nan 0.4 3.3 3.3 2.5 1.5 1.3 1.0 0.2 0.3 0.1 0.3 0.2 0.8 0.0 0.9 3.8 1.2 1.2 1.3 1.1 0.7 1.1 1.2 0.9 0.9 0.7 nan nan nan
1.8 1.5 nan nan nan 1.2 nan nan 0.4 3.2 4.1 5.5 3.0 1.6 1.1 0.5 0.2 0.5 0.2 0.1 0.1 0.1 0.2 0.4 1.5 0.3 1.1 1.7 2.4 1.8 2.3 1.1 1.3 1.4 1.2 0.8 0.6 0.5
0.2 1.6 0.6 1.5 0.8 1.0 1.4 1.7 2.3 2.9 3.6 3.8 2.5 1.3 0.9 1.4 1.7 1.3 2.4 1.5 1.9 2.4 0.7 0.2 0.4 0.3 1.9 0.9 1.1 1.6 0.9 3.8 1.1 1.2 1.3 1.5 1.0 0.9
3.0 5.5 3.4 2.8 2.6 2.0 2.2 2.0 1.8 2.0 2.9 3.7 3.7 2.5 1.8 1.5 2.0 1.5 1.4 1.4 3.1 1.9 2.0 1.4 0.3 0.3 0.8 1.0 3.3 0.9 1.0 1.2 2.2 1.4 1.6 1.5 1.0 1.1
4.5 6.0 9.3 10.3 6.8 2.9 3.8 3.0 2.7 2.3 2.1 2.7 4.2 2.7 2.9 3.2 2.6 2.4 2.0 2.4 3.1 2.3 1.8 1.1 2.4 2.7 2.3 2.3 1.8 1.8 1.2 3.6 1.0 0.8 1.1 2.3 0.9 1.3
6.7 5.3 10.7 13.3 7.7 2.7 2.7 2.5 3.9 3.4 1.9 3.0 3.9 5.1 5.1 3.5 4.2 3.6 4.0 3.2 3.3 2.0 1.5 1.7 2.3 3.3 5.0 8.5 2.8 nan 5.1 2.1 3.2 2.7 1.6 2.2 2.9 2.3
3.2 5.0 6.9 6.9 3.5 2.5 2.4 3.0 3.5 5.4 5.6 4.3 6.3 9.8 11.3 7.5 6.0 4.0 3.4 5.6 3.3 1.9 1.4 0.8 1.4 1.8 3.9 7.4 10.6 6.8 nan 4.1 3.5 4.0 2.6 1.7 1.9 nan
3.7 3.6 5.6 3.5 3.3 2.7 9.0 11.0 14.3 12.4 13.1 16.9 8.9 9.3 20.4 5.5 6.3 4.1 4.4 3.7 3.1 1.4 1.6 1.6 1.5 0.1 1.6 3.7 17.2 8.1 6.4 nan 2.5 2.6 2.2 2.7 1.8 1.6
5.3 3.3 3.3 3.5 5.7 4.7 10.9 18.5 17.1 16.8 12.3 8.6 18.3 25.2 23.1 10.4 9.2 7.9 9.6 8.8 2.9 3.6 1.9 1.4 0.8 0.6 2.4 2.5 3.9 10.1 4.2 4.0 nan nan nan nan 4.2 5.0
9.4 4.0 5.7 7.3 6.2 7.8 4.3 9.7 4.6 20.9 9.0 9.1 8.6 9.4 39.8 13.9 6.8 6.9 8.2 5.1 3.1 3.5 2.3 2.6 1.2 0.9 1.5 1.3 2.3 4.4 3.3 6.0 2.5 2.2 5.0 nan nan nan

GFSNE_prec_sndepth_060.txt.gz
Snowfall_Accumulation
0.0 0.0 0.0 0.0 0.0 0.0 0.0 0.0 0.2 0.5 0.0 0.0 0.0 0.0 0.0 0.0 0.0 0.0 0.0 nan nan nan nan nan nan nan nan nan nan nan nan nan nan nan nan nan nan nan
0.0 0.0 0.0 0.0 0.0 0.0 0.0 0.0 0.0 0.0 0.1 0.0 0.0 0.0 0.0 0.0 0.0 0.0 0.0 nan nan nan nan nan nan nan nan nan nan nan nan nan nan nan nan nan nan nan
0.0 0.0 0.0 0.0 0.0 0.0 0.0 0.0 0.0 0.0 0.0 0.0 0.0 0.0 0.0 0.0 0.0 0.0 0.0 0.0 0.0 nan nan nan nan nan nan nan nan nan nan nan nan nan nan nan nan nan
0.0 0.0 0.0 0.0 0.0 0.0 0.0 0.0 0.0 0.0 0.0 0.0 0.0 0.0 0.0 0.0 0.0 0.0 0.0 0.0 0.0 nan nan nan nan nan nan nan nan nan nan nan nan nan nan nan nan nan
0.0 0.0 0.0 0.0 0.0 0.0 0.0 0.0 0.0 0.0 0.0 0.0 0.0 0.0 0.0 0.0 0.0 0.0 0.0 0.0 0.0 nan nan nan nan nan nan nan nan nan nan nan nan nan nan nan nan nan
0.0 0.0 0.0 0.0 0.0 0.0 0.0 0.0 0.0 0.0 0.0 0.0 0.0 0.0 0.0 0.0 0.0 0.0 0.0 0.0 0.0 0.0 nan nan nan nan nan nan nan nan nan nan nan nan nan nan nan nan
0.0 0.0 0.0 nan nan nan 0.0 0.0 0.0 0.0 0.0 0.0 0.0 0.0 0.0 0.0 0.0 0.1 0.0 0.0 0.0 0.0 0.0 0.0 0.0 0.0 0.0 nan nan nan nan nan nan nan nan nan nan nan
0.0 0.0 0.0 0.0 0.0 nan nan nan nan 0.0 0.0 0.3 0.1 0.1 0.0 0.0 0.1 0.0 0.0 0.0 0.2 0.0 0.0 0.1 0.0 0.0 0.0 0.0 nan nan nan nan nan nan nan nan nan nan
0.0 0.0 0.0 0.0 nan 0.0 nan nan nan nan 0.0 0.1 0.1 0.2 0.1 0.0 0.0 0.0 0.0 0.0 0.1 0.0 0.0 0.2 0.1 0.1 0.0 0.0 nan nan nan nan nan nan nan nan nan nan
0.0 0.0 0.0 0.0 0.0 0.0 0.0 0.0 0.0 0.0 0.0 0.0 0.0 0.0 0.0 0.0 0.0 0.0 0.2 0.2 0.1 0.0 0.0 1.9 0.3 0.4 0.2 0.0 nan nan nan nan nan nan nan nan nan nan
0.0 0.0 0.0 0.0 nan nan 0.1 0.1 0.0 0.0 nan nan nan nan nan nan nan 0.7 1.3 1.7 2.9 0.1 0.1 0.7 0.5 0.6 0.4 0.3 0.2 nan nan nan nan nan nan nan nan nan
0.0 0.0 nan 0.0 nan nan 0.4 0.3 0.6 0.0 0.0 0.0 0.0 0.0 nan nan nan 0.0 0.5 2.2 1.4 1.4 0.2 1.6 0.2 0.9 1.9 0.6 0.3 0.3 0.2 nan nan nan nan nan nan 0.0
0.5 0.4 0.3 nan nan nan nan 0.3 0.5 0.0 0.0 0.2 0.0 0.0 0.0 0.0 0.0 0.0 0.0 0.4 1.4 0.7 0.0 1.4 0.7 0.5 1.1 0.9 0.6 0.5 0.4 0.5 0.4 0.3 nan nan nan 0.2
0.4 0.5 0.6 nan nan nan 0.4 nan nan 0.3 2.5 2.6 2.0 1.2 1.0 0.8 0.1 0.2 0.1 0.2 0.2 0.5 0.0 0.4 3.1 0.9 1.0 1.1 0.9 0.5 0.8 0.9 0.7 0.7 0.5 nan nan nan
1.3 1.0 nan nan nan 0.8 nan nan 0.0 2.7 3.7 4.9 2.5 1.3 0.9 0.4 0.1 0.4 0.1 0.1 0.1 0.1 0.1 0.2 1.2 0.2 0.9 1.4 2.1 1.5 1.8 0.8 1.0 1.2 1.0 0.7 0.6 0.4
0.2 1.1 0.0 1.1 0.2 0.7 1.3 1.8 2.4 2.9 3.2 3.2 2.0 1.0 0.8 1.1 1.3 1.0 2.0 1.2 1.5 1.8 0.3 0.1 0.2 0.2 1.6 0.7 0.8 1.3 0.8 3.4 0.9 1.0 1.2 1.3 0.8 0.8
2.2 3.9 2.6 2.0 2.2 1.7 2.0 1.9 1.7 1.8 2.6 3.1 3.2 2.2 1.6 1.3 1.7 1.2 1.2 1.2 2.6 1.5 1.6 1.0 0.1 0.1 0.6 0.6 2.9 0.8 0.8 1.0 1.8 1.2 1.4 1.3 0.8 0.9
3.6 4.8 7.4 8.1 5.1 2.3 3.2 2.7 2.3 2.0 1.8 2.3 3.5 2.4 2.5 2.8 2.2 2.1 1.7 2.1 2.6 1.8 1.4 0.9 1.8 2.0 1.8 1.6 1.4 1.6 1.0 3.0 0.9 0.7 0.9 2.2 0.8 1.1
5.8 4.2 8.6 10.2 5.6 2.2 2.4 2.3 3.7 2.9 1.3 2.6 3.3 4.5 4.4 3.1 3.6 3.1 3.5 2.8 2.8 1.6 1.2 1.3 1.8 2.6 4.3 8.4 2.2 nan 4.6 1.8 2.8 2.3 1.4 2.0 2.5 1.8
2.9 5.1 6.7 6.2 3.6 2.8 2.6 2.6 2.9 4.6 4.7 3.8 5.4 8.3 9.7 6.3 5.4 3.5 2.9 5.0 2.8 1.5 1.1 0.6 1.1 1.4 3.2 7.2 10.5 5.6 nan 3.6 3.1 3.6 2.4 1.5 1.5 nan
3.7 3.6 5.6 3.7 3.5 2.7 8.1 9.0 11.7 10.4 11.0 14.5 7.6 8.1 17.8 4.7 5.4 3.5 3.8 3.1 2.7 1.1 1.3 1.3 1.1 0.0 1.2 3.0 16.9 7.0 5.3 nan 1.8 2.2 1.9 2.4 1.6 1.4
5.2 3.3 3.4 3.7 5.8 4.8 10.2 16.3 14.4 14.2 10.3 7.4 15.9 22.0 20.1 8.8 7.9 6.7 8.4 8.0 2.4 3.0 1.5 1.1 0.6 0.5 1.9 2.1 3.4 9.0 3.4 3.3 nan nan nan nan 3.8 4.8
9.3 3.9 5.7 7.4 6.3 7.8 4.3 9.5 4.1 18.6 7.6 7.6 7.3 8.0 35.7 12.3 5.7 5.9 7.0 4.4 2.6 2.9 1.9 2.1 1.0 0.8 1.2 1.1 1.8 3.8 2.6 5.0 2.1 1.8 4.3 nan nan nan

GFSNE_prec_sndepth_063.txt.gz
Snowfall_Accumulation
0.0 0.0 0.0 0.0 0.0 0.0 0.0 0.0 0.1 0.4 0.0 0.0 0.0 0.0 0.0 0.0 0.0 0.0 0.0 nan nan nan nan nan nan nan nan nan nan nan nan nan nan nan nan nan nan nan
0.0 0.0 0.0 0.0 0.0 0.0 0.0 0.0 0.0 0.0 0.1 0.0 0.0 0.0 0.0 0.0 0.0 0.0 0.0 nan nan nan nan nan nan nan nan nan nan nan nan nan nan nan nan nan nan nan
0.0 0.0 0.0 0.0 0.0 0.0 0.0 0.0 0.0 0.0 0.0 0.0 0.0 0.0 0.0 0.0 0.0 0.0 0.0 0.0 0.0 nan nan nan nan nan nan nan nan nan nan nan nan nan nan nan nan nan
0.0 0.0 0.0 0.0 0.0 0.0 0.0 0.0 0.0 0.0 0.0 0.0 0.0 0.0 0.0 0.0 0.0 0.0 0.0 0.0 0.0 nan nan nan nan nan nan nan nan nan nan nan nan nan nan nan nan nan
0.0 0.0 0.0 0.0 0.0 0.0 0.0 0.0 0.0 0.0 0.0 0.0 0.0 0.0 0.0 0.0 0.0 0.0 0.0 0.0 0.0 nan nan nan nan nan nan nan nan nan nan nan nan nan nan nan nan nan
0.0 0.0 0.0 0.0 0.0 0.0 0.0 0.0 0.0 0.0 0.0 0.0 0.0 0.0 0.0 0.0 0.0 0.0 0.0 0.0 0.0 0.0 nan nan nan nan nan nan nan nan nan nan nan nan nan nan nan nan
0.0 0.0 0.0 nan nan nan 0.0 0.0 0.0 0.0 0.0 0.0 0.0 0.0 0.0 0.0 0.0 0.1 0.0 0.0 0.0 0.0 0.0 0.0 0.0 0.0 0.0 nan nan nan nan nan nan nan nan nan nan nan
0.0 0.0 0.0 0.0 0.0 nan nan nan nan 0.0 0.0 0.2 0.0 0.0 0.0 0.0 0.0 0.0 0.0 0.0 0.1 0.0 0.0 0.0 0.0 0.0 0.0 0.0 nan nan nan nan nan nan nan nan nan nan
0.0 0.0 0.0 0.0 nan 0.0 nan nan nan nan 0.0 0.0 0.1 0.1 0.1 0.0 0.0 0.0 0.0 0.0 0.0 0.0 0.0 0.2 0.1 0.1 0.0 0.0 nan nan nan nan nan nan nan nan nan nan
0.0 0.0 0.0 0.0 0.0 0.0 0.0 0.0 0.0 0.0 0.0 0.0 0.0 0.0 0.0 0.0 0.0 0.0 0.1 0.1 0.1 0.0 0.0 1.5 0.3 0.3 0.2 0.0 nan nan nan nan nan nan nan nan nan nan
0.0 0.0 0.0 0.0 nan nan 0.0 0.1 0.0 0.0 nan nan nan nan nan nan nan 0.5 1.0 1.4 2.4 0.1 0.1 0.5 0.4 0.5 0.3 0.3 0.2 nan nan nan nan nan nan nan nan nan
0.0 0.0 nan 0.0 nan nan 0.2 0.1 0.2 0.0 0.0 0.0 0.0 0.0 nan nan nan 0.0 0.4 1.8 1.2 1.1 0.1 1.2 0.1 0.7 1.6 0.5 0.3 0.3 0.2 nan nan nan nan nan nan 0.0
0.4 0.3 0.2 nan nan nan nan 0.1 0.2 0.0 0.0 0.2 0.0 0.0 0.0 0.0 0.0 0.0 0.0 0.4 1.1 0.6 0.0 1.1 0.6 0.4 0.8 0.7 0.5 0.4 0.3 0.4 0.3 0.2 nan nan nan 0.1
0.3 0.4 0.5 nan nan nan 0.3 nan nan 0.2 2.0 2.2 1.7 1.0 0.9 0.7 0.1 0.2 0.0 0.1 0.1 0.3 0.0 0.2 2.6 0.8 0.8 1.0 0.8 0.4 0.7 0.8 0.6 0.6 0.5 nan nan nan
1.0 0.8 nan nan nan 0.3 nan nan 0.0 2.4 3.4 4.8 2.4 1.2 0.7 0.3 0.1 0.3 0.1 0.0 0.0 0.0 0.0 0.1 1.0 0.1 0.7 1.2 1.8 1.2 1.5 0.7 0.8 1.0 0.8 0.6 0.5 0.4
0.1 0.9 0.0 0.8 0.0 0.3 0.9 1.4 1.9 2.5 3.0 2.8 1.7 0.8 0.6 1.0 1.1 0.8 1.6 1.0 1.3 1.5 0.2 0.1 0.1 0.1 1.3 0.6 0.7 1.1 0.7 3.0 0.7 0.9 1.0 1.1 0.7 0.7
1.9 3.0 2.0 1.6 1.6 1.2 1.4 1.5 1.4 1.7 2.7 3.0 3.0 2.1 1.4 1.2 1.5 1.1 1.0 1.0 2.4 1.3 1.3 0.8 0.1 0.1 0.5 0.4 2.6 0.7 0.7 0.8 1.5 1.0 1.3 1.1 0.7 0.7
3.0 4.2 6.4 6.9 4.2 1.8 2.4 2.0 1.8 1.6 1.5 2.0 2.9 1.9 2.1 2.4 1.9 1.8 1.4 1.8 2.3 1.6 1.2 0.7 1.5 1.7 1.4 1.2 1.1 1.4 0.9 2.5 0.8 0.6 0.8 2.0 0.7 0.9
5.6 4.1 8.5 9.8 5.2 1.9 2.0 2.0 3.0 2.5 1.0 2.5 2.7 3.6 3.6 2.6 3.1 2.8 3.1 2.5 2.5 1.4 1.0 1.1 1.5 2.2 3.9 8.2 1.8 nan 4.0 1.6 2.6 2.1 1.2 1.9 2.3 1.5
2.4 5.0 6.6 6.2 3.6 3.0 3.1 3.1 2.8 4.0 4.0 3.0 4.4 6.7 7.9 5.3 4.8 3.2 2.6 4.5 2.5 1.3 0.9 0.5 0.9 1.2 2.7 6.9 10.2 4.7 nan 3.1 2.9 3.5 2.4 1.3 1.2 nan
3.4 3.4 5.5 3.7 3.5 2.8 8.1 9.1 11.1 9.1 9.2 12.0 6.2 7.0 15.6 4.1 4.7 3.1 3.3 2.7 2.4 1.0 1.1 1.0 0.9 0.0 1.0 2.5 16.5 6.3 4.7 nan 1.3 1.8 1.7 2.3 1.4 1.4
5.1 3.3 3.3 3.6 5.8 4.8 10.3 16.3 14.1 13.6 9.5 6.6 13.4 19.2 17.4 7.4 6.9 5.8 7.3 7.1 2.1 2.6 1.3 0.9 0.5 0.4 1.5 1.7 3.0 8.2 2.9 2.7 nan nan nan nan 3.6 4.7
9.2 3.9 5.7 7.3 6.2 7.8 4.4 9.6 4.3 18.7 7.4 6.9 6.4 6.9 31.7 10.7 4.9 5.2 6.0 3.8 2.3 2.5 1.6 1.8 0.8 0.6 1.0 0.9 1.6 3.3 2.2 4.5 1.7 1.5 3.9 nan nan nan

GFSNE_prec_sndepth_069.txt.gz
Snowfall_Accumulation
0.0 0.0 0.0 0.0 0.0 0.0 0.0 0.0 0.1 0.3 0.0 0.0 0.0 0.0 0.0 0.0 0.0 0.0 0.0 nan nan nan nan nan nan nan nan nan nan nan nan nan nan nan nan nan nan nan
0.0 0.0 0.0 0.0 0.0 0.0 0.0 0.0 0.0 0.0 0.0 0.0 0.0 0.0 0.0 0.0 0.0 0.0 0.0 nan nan nan nan nan nan nan nan nan nan nan nan nan nan nan nan nan nan nan
0.0 0.0 0.0 0.0 0.0 0.0 0.0 0.0 0.0 0.0 0.0 0.0 0.0 0.0 0.0 0.0 0.0 0.0 0.0 0.0 0.0 nan nan nan nan nan nan nan nan nan nan nan nan nan nan nan nan nan
0.0 0.0 0.0 0.0 0.0 0.0 0.0 0.0 0.0 0.0 0.0 0.0 0.0 0.0 0.0 0.0 0.0 0.0 0.0 0.0 0.0 nan nan nan nan nan nan nan nan nan nan nan nan nan nan nan nan nan
0.0 0.0 0.0 0.0 0.0 0.0 0.0 0.0 0.0 0.0 0.0 0.0 0.0 0.0 0.0 0.0 0.0 0.0 0.0 0.0 0.0 nan nan nan nan nan nan nan nan nan nan nan nan nan nan nan nan nan
0.0 0.0 0.0 0.0 0.0 0.0 0.0 0.0 0.0 0.0 0.0 0.0 0.0 0.0 0.0 0.0 0.0 0.0 0.0 0.0 0.0 0.0 nan nan nan nan nan nan nan nan nan nan nan nan nan nan nan nan
0.0 0.0 0.0 nan nan nan 0.0 0.0 0.0 0.0 0.0 0.0 0.0 0.0 0.0 0.0 0.0 0.0 0.0 0.0 0.0 0.0 0.0 0.0 0.0 0.0 0.0 nan nan nan nan nan nan nan nan nan nan nan
0.0 0.0 0.0 0.0 0.0 nan nan nan nan 0.0 0.0 0.1 0.0 0.0 0.0 0.0 0.0 0.0 0.0 0.0 0.1 0.0 0.0 0.0 0.0 0.0 0.0 0.0 nan nan nan nan nan nan nan nan nan nan
0.0 0.0 0.0 0.0 nan 0.0 nan nan nan nan 0.0 0.0 0.0 0.1 0.0 0.0 0.1 0.0 0.0 0.0 0.1 0.0 0.0 0.2 0.1 0.1 0.0 0.0 nan nan nan nan nan nan nan nan nan nan
0.0 0.0 0.0 0.0 0.0 0.0 0.0 0.0 0.0 0.0 0.0 0.0 0.0 0.0 0.0 0.0 0.0 0.0 0.1 0.1 0.1 0.0 0.0 1.4 0.2 0.3 0.1 0.0 nan nan nan nan nan nan nan nan nan nan
0.0 0.0 0.0 0.0 nan nan 0.0 0.0 0.0 0.0 nan nan nan nan nan nan nan 0.5 1.2 1.7 2.6 0.1 0.1 0.5 0.4 0.4 0.3 0.2 0.2 nan nan nan nan nan nan nan nan nan
0.0 0.0 nan 0.0 nan nan 0.1 0.1 0.2 0.0 0.0 0.0 0.0 0.0 nan nan nan 0.0 0.4 2.3 1.3 1.2 0.1 1.2 0.1 0.7 1.6 0.4 0.3 0.2 0.2 nan nan nan nan nan nan 0.0
0.4 0.3 0.2 nan nan nan nan 0.1 0.2 0.0 0.0 0.1 0.0 0.0 0.0 0.0 0.0 0.0 0.0 0.4 1.2 0.6 0.0 1.0 0.5 0.4 0.8 0.7 0.4 0.4 0.3 0.4 0.3 0.2 nan nan nan 0.1
0.3 0.4 0.4 nan nan nan 0.3 nan nan 0.2 1.9 2.0 1.6 1.0 0.8 0.7 0.1 0.2 0.0 0.1 0.1 0.3 0.0 0.2 2.5 0.7 0.8 1.0 0.8 0.4 0.6 0.7 0.5 0.6 0.4 nan nan nan
0.9 0.7 nan nan nan 0.3 nan nan 0.0 2.2 3.2 4.7 2.5 1.2 0.7 0.3 0.1 0.3 0.1 0.1 0.1 0.0 0.0 0.1 0.9 0.1 0.7 1.2 1.8 1.2 1.4 0.6 0.8 0.9 0.8 0.6 0.5 0.4
0.1 0.8 0.0 0.8 0.0 0.3 0.8 1.2 1.7 2.2 2.8 2.9 1.8 0.8 0.6 1.0 1.4 1.1 2.4 1.6 1.7 1.5 0.1 0.1 0.1 0.1 1.3 0.6 0.7 1.1 0.6 3.0 0.7 1.0 1.3 1.1 0.7 0.6
1.8 2.9 1.9 1.5 1.5 1.2 1.3 1.4 1.2 1.5 2.5 2.9 3.0 2.2 1.9 1.8 2.2 1.3 1.7 1.6 2.8 1.3 1.3 0.8 0.1 0.1 0.5 0.3 2.5 0.7 0.7 0.8 1.4 1.5 1.3 1.1 0.7 0.7
2.9 4.1 6.3 6.8 4.2 1.8 2.4 2.0 1.7 1.5 1.4 2.0 2.9 2.1 2.6 3.5 3.4 2.9 2.8 2.4 2.4 1.6 1.2 0.7 1.4 1.6 1.4 1.2 1.1 1.4 0.8 2.5 0.9 0.6 0.8 2.0 0.7 0.9
5.5 4.1 8.5 9.8 5.1 1.9 2.0 2.1 3.3 2.8 1.6 3.3 4.1 5.2 5.3 4.1 4.5 2.8 3.1 2.4 2.6 1.4 1.0 1.1 1.4 2.2 3.9 8.2 1.8 nan 4.0 1.6 2.5 2.1 1.3 1.9 2.3 1.5
2.4 4.9 6.5 6.1 3.6 3.0 3.1 3.1 2.8 4.1 4.3 3.5 4.9 6.8 8.0 5.5 5.3 3.7 2.8 4.7 2.7 1.4 0.9 0.5 0.9 1.1 2.7 6.9 10.2 4.7 nan 3.1 2.9 3.6 2.4 1.3 1.1 nan
3.4 3.3 5.4 3.6 3.5 2.8 8.1 9.1 11.1 9.3 9.5 12.1 6.3 7.0 15.4 4.6 4.9 3.3 3.4 2.8 2.5 1.2 1.3 1.0 0.9 0.0 1.0 2.5 16.5 6.3 4.6 nan 1.3 1.8 1.7 2.3 1.4 1.4
5.1 3.2 3.3 3.6 5.8 4.8 10.3 16.2 14.0 13.6 9.6 7.1 14.1 19.3 17.1 7.8 7.3 6.2 7.9 7.7 2.3 2.6 1.3 0.9 0.5 0.4 1.5 1.7 3.0 8.2 2.9 2.7 nan nan nan nan 3.6 4.7
9.1 3.9 5.7 7.3 6.2 7.8 4.4 9.6 4.3 18.6 7.6 7.3 6.8 7.1 31.8 11.5 5.4 5.5 6.5 4.2 2.7 2.7 1.7 1.8 0.8 0.6 1.0 0.9 1.5 3.3 2.2 4.5 1.7 1.5 3.9 nan nan nan

GFSNE_prec_sndepth_072.txt.gz
Snowfall_Accumulation
0.0 0.0 0.0 0.0 0.0 0.0 0.0 0.0 0.1 0.3 0.0 0.0 0.0 0.0 0.0 0.0 0.0 0.0 0.0 nan nan nan nan nan nan nan nan nan nan nan nan nan nan nan nan nan nan nan
0.0 0.0 0.0 0.0 0.0 0.0 0.0 0.0 0.0 0.0 0.0 0.0 0.0 0.0 0.0 0.0 0.0 0.0 0.0 nan nan nan nan nan nan nan nan nan nan nan nan nan nan nan nan nan nan nan
0.0 0.0 0.0 0.0 0.0 0.0 0.0 0.0 0.0 0.0 0.0 0.0 0.0 0.0 0.0 0.0 0.0 0.0 0.0 0.0 0.0 nan nan nan nan nan nan nan nan nan nan nan nan nan nan nan nan nan
0.0 0.0 0.0 0.0 0.0 0.0 0.0 0.0 0.0 0.0 0.0 0.0 0.0 0.0 0.0 0.0 0.0 0.0 0.0 0.0 0.0 nan nan nan nan nan nan nan nan nan nan nan nan nan nan nan nan nan
0.0 0.0 0.0 0.0 0.0 0.0 0.0 0.0 0.0 0.0 0.0 0.0 0.0 0.0 0.0 0.0 0.0 0.0 0.0 0.0 0.0 nan nan nan nan nan nan nan nan nan nan nan nan nan nan nan nan nan
0.0 0.0 0.0 0.0 0.0 0.0 0.0 0.0 0.0 0.0 0.0 0.0 0.0 0.0 0.0 0.0 0.0 0.0 0.0 0.0 0.0 0.0 nan nan nan nan nan nan nan nan nan nan nan nan nan nan nan nan
0.0 0.0 0.0 nan nan nan 0.0 0.0 0.0 0.0 0.0 0.0 0.0 0.0 0.0 0.0 0.0 0.0 0.0 0.0 0.0 0.0 0.0 0.0 0.0 0.0 0.0 nan nan nan nan nan nan nan nan nan nan nan
0.0 0.0 0.0 0.0 0.0 nan nan nan nan 0.0 0.0 0.1 0.0 0.0 0.0 0.0 0.0 0.1 0.1 0.1 0.3 0.0 0.0 0.0 0.0 0.0 0.0 0.0 nan nan nan nan nan nan nan nan nan nan
0.0 0.0 0.0 0.0 nan 0.0 nan nan nan nan 0.0 0.0 0.0 0.1 0.0 0.0 0.1 0.0 0.1 0.1 0.2 0.0 0.1 0.4 0.1 0.1 0.0 0.0 nan nan nan nan nan nan nan nan nan nan
0.0 0.0 0.0 0.0 0.0 0.0 0.0 0.0 0.0 0.0 0.0 0.0 0.0 0.0 0.0 0.0 0.0 0.0 0.1 0.1 0.1 0.0 0.0 1.6 0.2 0.3 0.1 0.0 nan nan nan nan nan nan nan nan nan nan
0.0 0.0 0.0 0.0 nan nan 0.0 0.0 0.0 0.0 nan nan nan nan nan nan nan 0.4 1.2 1.9 2.7 0.2 0.1 0.8 0.5 0.5 0.3 0.2 0.2 nan nan nan nan nan nan nan nan nan
0.0 0.0 nan 0.0 nan nan 0.1 0.1 0.2 0.0 0.0 0.0 0.0 0.0 nan nan nan 0.0 0.4 2.4 1.4 1.2 0.1 1.4 0.1 0.7 1.6 0.4 0.3 0.2 0.2 nan nan nan nan nan nan 0.0
0.4 0.3 0.2 nan nan nan nan 0.1 0.2 0.0 0.0 0.1 0.0 0.0 0.0 0.0 0.0 0.0 0.0 0.4 1.4 0.9 0.0 1.3 0.8 0.6 0.8 0.7 0.4 0.4 0.3 0.4 0.3 0.2 nan nan nan 0.2
0.3 0.4 0.4 nan nan nan 0.3 nan nan 0.2 1.9 2.0 1.6 1.0 0.8 0.7 0.1 0.2 0.0 0.1 0.1 0.4 0.1 0.8 3.1 0.8 0.8 1.0 0.8 0.4 0.6 0.7 0.5 0.6 0.4 nan nan nan
0.9 0.7 nan nan nan 0.3 nan nan 0.0 2.2 3.2 4.7 2.5 1.2 0.7 0.3 0.1 0.3 0.1 0.1 0.1 0.1 0.2 0.5 1.0 0.1 0.7 1.2 1.8 1.2 1.4 0.6 0.8 0.9 0.8 0.6 0.5 0.4
0.1 0.8 0.0 0.8 0.0 0.3 0.8 1.2 1.7 2.2 2.8 2.9 1.8 0.8 0.6 1.0 1.4 1.1 2.4 1.7 2.0 1.8 0.5 0.5 0.3 0.1 1.3 0.6 0.7 1.1 0.6 3.0 0.7 1.0 1.3 1.1 0.7 0.6
1.8 2.9 1.9 1.5 1.5 1.1 1.3 1.4 1.2 1.5 2.5 2.9 3.0 2.2 1.9 1.8 2.2 1.3 1.9 2.1 3.3 1.5 1.6 0.8 0.1 0.1 0.5 0.3 2.5 0.7 0.7 0.8 1.4 1.5 1.3 1.1 0.7 0.7
2.9 4.1 6.3 6.8 4.2 1.8 2.4 1.9 1.7 1.5 1.4 2.0 2.9 2.1 2.6 3.6 3.5 3.1 3.2 3.3 3.3 2.1 1.2 0.7 1.4 1.7 1.5 1.2 1.1 1.4 0.8 2.5 0.9 0.6 0.8 2.0 0.7 0.9
5.5 4.1 8.5 9.8 5.1 1.9 2.0 2.1 3.3 2.8 1.6 3.3 4.1 5.2 5.5 4.2 4.7 3.7 4.2 2.8 2.6 1.4 1.0 1.1 1.6 2.3 4.0 8.2 1.8 nan 4.1 1.6 2.5 2.1 1.3 1.9 2.3 1.5
2.4 4.9 6.5 6.1 3.6 3.0 3.1 3.1 2.8 4.1 4.3 3.5 4.9 6.8 8.0 5.8 5.4 3.9 3.6 5.8 3.2 1.4 1.0 0.6 1.0 1.1 2.7 6.9 10.2 4.7 nan 3.1 2.9 3.6 2.4 1.3 1.1 nan
3.4 3.3 5.4 3.6 3.5 2.8 8.1 9.1 11.1 9.3 9.5 12.1 6.3 7.0 15.4 4.7 5.0 3.6 3.9 3.0 2.7 1.4 1.3 1.1 0.9 0.0 1.0 2.4 16.4 6.3 4.6 nan 1.3 1.8 1.7 2.3 1.4 1.4
5.1 3.2 3.3 3.6 5.8 4.8 10.3 16.2 14.1 13.6 9.6 7.1 14.1 19.3 17.1 7.8 7.5 6.6 8.3 8.0 2.6 2.8 1.5 0.9 0.6 0.5 1.5 1.7 3.0 8.2 2.9 2.7 nan nan nan nan 3.6 4.8
9.1 3.9 5.7 7.3 6.2 7.8 4.4 9.6 4.3 18.6 7.6 7.4 6.8 7.1 31.7 11.5 5.7 5.8 7.0 4.8 3.0 2.9 1.9 2.1 1.0 0.6 1.0 0.8 1.5 3.3 2.2 4.5 1.7 1.5 3.9 nan nan nan

GFSNE_prec_sndepth_075.txt.gz
Snowfall_Accumulation
0.0 0.0 0.0 0.0 0.0 0.0 0.0 0.0 0.0 0.3 0.0 0.0 0.0 0.0 0.0 0.0 0.0 0.0 0.0 nan nan nan nan nan nan nan nan nan nan nan nan nan nan nan nan nan nan nan
0.0 0.0 0.0 0.0 0.0 0.0 0.0 0.0 0.0 0.0 0.0 0.0 0.0 0.0 0.0 0.0 0.0 0.0 0.0 nan nan nan nan nan nan nan nan nan nan nan nan nan nan nan nan nan nan nan
0.0 0.0 0.0 0.0 0.0 0.0 0.0 0.0 0.0 0.0 0.0 0.0 0.0 0.0 0.0 0.0 0.0 0.0 0.0 0.0 0.0 nan nan nan nan nan nan nan nan nan nan nan nan nan nan nan nan nan
0.0 0.0 0.0 0.0 0.0 0.0 0.0 0.0 0.0 0.0 0.0 0.0 0.0 0.0 0.0 0.0 0.0 0.0 0.0 0.0 0.0 nan nan nan nan nan nan nan nan nan nan nan nan nan nan nan nan nan
0.0 0.0 0.0 0.0 0.0 0.0 0.0 0.0 0.0 0.0 0.0 0.0 0.0 0.0 0.0 0.0 0.0 0.0 0.0 0.0 0.0 nan nan nan nan nan nan nan nan nan nan nan nan nan nan nan nan nan
0.0 0.0 0.0 0.0 0.0 0.0 0.0 0.0 0.0 0.0 0.0 0.0 0.0 0.0 0.0 0.0 0.0 0.0 0.0 0.0 0.0 0.0 nan nan nan nan nan nan nan nan nan nan nan nan nan nan nan nan
0.0 0.0 0.0 nan nan nan 0.0 0.0 0.0 0.0 0.0 0.0 0.0 0.0 0.0 0.0 0.0 0.0 0.0 0.0 0.0 0.0 0.0 0.0 0.0 0.0 0.0 nan nan nan nan nan nan nan nan nan nan nan
0.0 0.0 0.0 0.0 0.0 nan nan nan nan 0.0 0.0 0.1 0.0 0.0 0.0 0.0 0.0 0.1 0.1 0.1 0.3 0.0 0.0 0.0 0.0 0.0 0.0 0.0 nan nan nan nan nan nan nan nan nan nan
0.0 0.0 0.0 0.0 nan 0.0 nan nan nan nan 0.0 0.0 0.1 0.1 0.1 0.0 0.1 0.0 0.1 0.1 0.2 0.0 0.2 0.5 0.1 0.1 0.0 0.0 nan nan nan nan nan nan nan nan nan nan
0.0 0.0 0.0 0.0 0.0 0.0 0.0 0.0 0.0 0.0 0.0 0.0 0.0 0.0 0.0 0.0 0.0 0.0 0.1 0.1 0.1 0.0 0.0 1.9 0.3 0.4 0.2 0.0 nan nan nan nan nan nan nan nan nan nan
0.0 0.0 0.0 0.0 nan nan 0.0 0.0 0.0 0.0 nan nan nan nan nan nan nan 0.5 1.2 1.9 2.8 0.2 0.1 0.9 0.6 0.6 0.5 0.5 0.4 nan nan nan nan nan nan nan nan nan
0.0 0.0 nan 0.0 nan nan 0.1 0.1 0.2 0.0 0.0 0.0 0.0 0.0 nan nan nan 0.0 0.4 2.6 1.4 1.3 0.1 1.4 0.1 0.8 1.9 0.5 0.4 0.2 0.2 nan nan nan nan nan nan 0.0
0.4 0.3 0.2 nan nan nan nan 0.1 0.2 0.0 0.0 0.1 0.0 0.0 0.0 0.0 0.0 0.0 0.0 0.5 1.6 0.9 0.0 1.5 0.9 1.0 1.5 0.8 0.4 0.4 0.3 0.4 0.3 0.2 nan nan nan 0.2
0.3 0.4 0.4 nan nan nan 0.3 nan nan 0.2 1.8 2.0 1.6 1.0 0.8 0.6 0.1 0.2 0.0 0.1 0.1 0.5 0.1 1.0 3.5 1.2 1.1 1.1 0.8 0.4 0.6 0.7 0.5 0.6 0.4 nan nan nan
0.9 0.7 nan nan nan 0.3 nan nan 0.0 2.2 3.2 4.7 2.5 1.2 0.7 0.3 0.1 0.3 0.1 0.1 0.1 0.1 0.2 0.7 1.5 0.4 1.0 1.3 1.8 1.2 1.4 0.6 0.8 0.9 0.8 0.6 0.5 0.4
0.1 0.8 0.0 0.8 0.0 0.3 0.8 1.2 1.7 2.2 2.8 2.9 1.8 0.8 0.5 1.0 1.4 1.1 2.4 1.7 2.2 1.9 0.5 0.6 1.0 1.1 1.8 0.7 0.7 1.1 0.6 3.0 0.7 1.0 1.3 1.1 0.7 0.6
1.8 2.9 1.9 1.4 1.5 1.1 1.3 1.4 1.2 1.5 2.5 2.9 3.0 2.2 1.9 1.8 2.2 1.3 1.9 2.1 3.5 1.6 1.7 1.0 0.4 0.5 0.7 0.4 2.5 0.7 0.7 0.8 1.4 1.5 1.3 1.1 0.7 0.7
2.9 4.1 6.3 6.8 4.1 1.7 2.4 1.9 1.6 1.5 1.4 2.0 2.9 2.1 2.6 3.6 3.5 3.1 3.1 3.4 3.5 2.2 1.5 0.9 1.6 2.0 1.5 1.2 1.1 1.4 0.8 2.5 0.9 0.6 0.8 2.0 0.7 0.9
5.5 4.1 8.4 9.8 5.1 1.9 2.0 2.1 3.3 2.8 1.6 3.3 4.1 5.2 5.5 4.2 4.7 3.7 4.2 3.5 3.2 2.1 1.9 1.4 1.8 2.6 4.0 8.2 1.8 nan 4.1 1.6 2.5 2.1 1.3 1.9 2.4 1.5
2.4 4.9 6.5 6.1 3.6 3.0 3.1 3.1 2.8 4.1 4.3 3.5 4.9 6.8 8.1 5.9 5.5 3.9 3.6 6.1 3.9 2.3 1.2 0.8 1.1 1.2 2.7 6.9 10.2 4.7 nan 3.1 2.9 3.6 2.4 1.3 1.1 nan
3.4 3.3 5.4 3.6 3.5 2.8 8.1 9.1 11.1 9.3 9.5 12.1 6.3 7.0 15.4 4.7 5.0 3.6 3.9 3.1 3.0 2.0 1.9 1.4 1.0 0.0 1.1 2.6 16.5 6.3 4.5 nan 1.3 1.8 1.7 2.3 1.4 1.4
5.1 3.2 3.3 3.6 5.8 4.8 10.2 16.2 14.1 13.6 9.6 7.1 14.1 19.3 17.1 7.8 7.6 6.7 8.4 8.2 2.8 3.2 1.8 1.1 0.9 0.8 1.6 1.7 3.0 8.1 2.9 2.7 nan nan nan nan 3.6 4.8
9.1 3.9 5.7 7.3 6.2 7.8 4.5 9.6 4.3 18.6 7.6 7.4 6.9 7.1 31.6 11.5 5.7 5.9 7.0 4.9 3.4 3.1 2.3 2.5 1.4 1.0 1.0 0.8 1.5 3.3 2.2 4.5 1.7 1.5 3.9 nan nan nan

GFSNE_prec_sndepth_078.txt.gz
Snowfall_Accumulation
0.0 0.0 0.0 0.0 0.0 0.0 0.0 0.0 0.0 0.3 0.0 0.0 0.0 0.0 0.0 0.0 0.0 0.0 0.0 nan nan nan nan nan nan nan nan nan nan nan nan nan nan nan nan nan nan nan
0.0 0.0 0.0 0.0 0.0 0.0 0.0 0.0 0.0 0.0 0.0 0.0 0.0 0.0 0.0 0.0 0.0 0.0 0.0 nan nan nan nan nan nan nan nan nan nan nan nan nan nan nan nan nan nan nan
0.0 0.0 0.0 0.0 0.0 0.0 0.0 0.0 0.0 0.0 0.0 0.0 0.0 0.0 0.0 0.0 0.0 0.0 0.0 0.0 0.0 nan nan nan nan nan nan nan nan nan nan nan nan nan nan nan nan nan
0.0 0.0 0.0 0.0 0.0 0.0 0.0 0.0 0.0 0.0 0.0 0.0 0.0 0.0 0.0 0.0 0.0 0.0 0.0 0.0 0.0 nan nan nan nan nan nan nan nan nan nan nan nan nan nan nan nan nan
0.0 0.0 0.0 0.0 0.0 0.0 0.0 0.0 0.0 0.0 0.0 0.0 0.0 0.0 0.0 0.0 0.0 0.0 0.0 0.0 0.0 nan nan nan nan nan nan nan nan nan nan nan nan nan nan nan nan nan
0.0 0.0 0.0 0.0 0.0 0.0 0.0 0.0 0.0 0.0 0.0 0.0 0.0 0.0 0.0 0.0 0.0 0.0 0.0 0.0 0.0 0.0 nan nan nan nan nan nan nan nan nan nan nan nan nan nan nan nan
0.0 0.0 0.0 nan nan nan 0.0 0.0 0.0 0.0 0.0 0.0 0.0 0.0 0.0 0.0 0.0 0.0 0.0 0.0 0.0 0.0 0.0 0.0 0.0 0.0 0.0 nan nan nan nan nan nan nan nan nan nan nan
0.0 0.0 0.0 0.0 0.0 nan nan nan nan 0.0 0.0 0.1 0.0 0.0 0.0 0.0 0.0 0.1 0.1 0.1 0.3 0.0 0.0 0.0 0.0 0.0 0.0 0.0 nan nan nan nan nan nan nan nan nan nan
0.0 0.0 0.0 0.0 nan 0.0 nan nan nan nan 0.0 0.0 0.1 0.1 0.1 0.0 0.1 0.0 0.1 0.1 0.2 0.0 0.2 0.5 0.1 0.1 0.0 0.0 nan nan nan nan nan nan nan nan nan nan
0.0 0.0 0.0 0.0 0.0 0.0 0.0 0.0 0.0 0.0 0.0 0.0 0.0 0.0 0.0 0.0 0.0 0.0 0.1 0.1 0.1 0.0 0.0 2.0 0.3 0.3 0.1 0.0 nan nan nan nan nan nan nan nan nan nan
0.0 0.0 0.0 0.0 nan nan 0.0 0.0 0.0 0.0 nan nan nan nan nan nan nan 0.5 1.2 1.9 2.7 0.2 0.1 0.9 0.6 0.6 0.4 0.5 0.4 nan nan nan nan nan nan nan nan nan
0.0 0.0 nan 0.0 nan nan 0.1 0.1 0.2 0.0 0.0 0.0 0.0 0.0 nan nan nan 0.0 0.4 2.6 1.5 1.3 0.1 1.4 0.1 0.8 1.9 0.5 0.4 0.4 0.3 nan nan nan nan nan nan 0.0
0.3 0.3 0.2 nan nan nan nan 0.1 0.2 0.0 0.0 0.1 0.0 0.0 0.0 0.0 0.0 0.0 0.0 0.5 1.7 1.0 0.0 1.5 0.9 1.0 1.7 0.9 0.4 0.4 0.5 0.5 0.3 0.2 nan nan nan 0.2
0.3 0.4 0.4 nan nan nan 0.3 nan nan 0.2 1.8 2.0 1.6 0.9 0.8 0.6 0.1 0.2 0.0 0.1 0.2 0.6 0.1 1.1 4.1 1.2 1.3 1.4 0.9 0.4 0.6 0.7 0.5 0.6 0.4 nan nan nan
0.9 0.7 nan nan nan 0.3 nan nan 0.0 2.2 3.2 4.7 2.5 1.2 0.7 0.2 0.1 0.3 0.1 0.1 0.1 0.1 0.2 0.7 1.8 0.5 1.3 1.7 2.2 1.4 1.6 0.6 0.8 0.9 0.8 0.6 0.5 0.3
0.1 0.8 0.0 0.8 0.0 0.3 0.8 1.2 1.7 2.2 2.8 2.9 1.8 0.8 0.5 0.9 1.4 1.0 2.4 1.7 2.2 1.8 0.5 0.6 1.1 1.3 2.5 1.1 1.0 1.2 0.6 3.0 0.7 1.0 1.3 1.1 0.7 0.6
1.8 2.9 1.9 1.4 1.5 1.1 1.3 1.3 1.2 1.5 2.5 2.8 3.0 2.2 1.9 1.8 2.2 1.3 1.9 2.1 3.5 1.6 1.7 1.0 0.5 0.7 0.9 0.6 3.0 0.8 0.8 0.8 1.4 1.5 1.3 1.1 0.7 0.7
2.9 4.1 6.3 6.8 4.1 1.7 2.3 1.9 1.6 1.5 1.4 2.0 2.9 2.1 2.6 3.6 3.5 3.1 3.1 3.4 3.5 2.2 1.5 1.0 2.1 2.6 2.2 1.7 1.1 1.4 0.9 2.5 0.9 0.6 0.8 2.0 0.7 0.9
5.5 4.1 8.5 9.8 5.1 1.9 2.0 2.1 3.3 2.8 1.6 3.3 4.1 5.2 5.5 4.2 4.7 3.7 4.2 3.5 3.2 2.1 1.9 2.0 3.1 3.5 4.4 8.3 1.8 nan 4.1 1.6 2.5 2.1 1.3 1.9 2.3 1.5
2.6 5.1 6.6 6.2 3.7 3.1 3.2 3.1 2.8 4.1 4.3 3.5 4.9 6.8 8.1 5.9 5.5 3.9 3.6 6.1 4.0 2.3 1.4 0.9 2.2 2.1 3.3 6.9 10.2 4.7 nan 3.1 2.9 3.6 2.4 1.3 1.1 nan
3.8 3.7 5.8 3.9 3.6 2.8 8.1 9.1 11.1 9.3 9.4 12.1 6.3 7.0 15.4 4.7 5.1 3.6 3.9 3.1 3.0 2.0 2.1 1.8 1.5 0.3 1.9 3.1 16.7 6.3 4.5 nan 1.3 1.8 1.7 2.3 1.4 1.4
5.2 3.2 3.3 3.6 5.8 4.8 10.2 16.2 14.1 13.5 9.6 7.1 14.1 19.3 17.1 7.9 7.6 6.7 8.4 8.2 2.8 3.2 1.8 1.2 1.4 1.9 2.3 1.8 3.0 8.1 2.9 2.7 nan nan nan nan 3.6 4.8
9.2 3.9 5.7 7.3 6.2 7.8 4.5 9.6 4.3 18.6 7.6 7.4 6.9 7.2 31.6 11.6 5.7 5.9 7.1 5.0 3.4 3.1 2.4 2.7 1.8 1.9 1.5 1.0 1.5 3.3 2.2 4.5 1.7 1.5 3.9 nan nan nan

GFSNE_prec_sndepth_081.txt.gz
Snowfall_Accumulation
0.0 0.0 0.0 0.0 0.0 0.0 0.0 0.0 0.0 0.2 0.0 0.0 0.0 0.0 0.0 0.0 0.0 0.0 0.0 nan nan nan nan nan nan nan nan nan nan nan nan nan nan nan nan nan nan nan
0.0 0.0 0.0 0.0 0.0 0.0 0.0 0.0 0.0 0.0 0.0 0.0 0.0 0.0 0.0 0.0 0.0 0.0 0.0 nan nan nan nan nan nan nan nan nan nan nan nan nan nan nan nan nan nan nan
0.0 0.0 0.0 0.0 0.0 0.0 0.0 0.0 0.0 0.0 0.0 0.0 0.0 0.0 0.0 0.0 0.0 0.0 0.0 0.0 0.0 nan nan nan nan nan nan nan nan nan nan nan nan nan nan nan nan nan
0.0 0.0 0.0 0.0 0.0 0.0 0.0 0.0 0.0 0.0 0.0 0.0 0.0 0.0 0.0 0.0 0.0 0.0 0.0 0.0 0.0 nan nan nan nan nan nan nan nan nan nan nan nan nan nan nan nan nan
0.0 0.0 0.0 0.0 0.0 0.0 0.0 0.0 0.0 0.0 0.0 0.0 0.0 0.0 0.0 0.0 0.0 0.0 0.0 0.0 0.0 nan nan nan nan nan nan nan nan nan nan nan nan nan nan nan nan nan
0.0 0.0 0.0 0.0 0.0 0.0 0.0 0.0 0.0 0.0 0.0 0.0 0.0 0.0 0.0 0.0 0.0 0.0 0.0 0.0 0.0 0.0 nan nan nan nan nan nan nan nan nan nan nan nan nan nan nan nan
0.0 0.0 0.0 nan nan nan 0.0 0.0 0.0 0.0 0.0 0.0 0.0 0.0 0.0 0.0 0.0 0.0 0.0 0.0 0.0 0.0 0.0 0.0 0.0 0.0 0.0 nan nan nan nan nan nan nan nan nan nan nan
0.0 0.0 0.0 0.0 0.0 nan nan nan nan 0.0 0.0 0.1 0.0 0.0 0.0 0.0 0.0 0.0 0.1 0.1 0.3 0.0 0.0 0.0 0.0 0.0 0.0 0.0 nan nan nan nan nan nan nan nan nan nan
0.0 0.0 0.0 0.0 nan 0.0 nan nan nan nan 0.0 0.0 0.0 0.1 0.0 0.0 0.0 0.0 0.0 0.1 0.2 0.0 0.1 0.4 0.1 0.1 0.0 0.0 nan nan nan nan nan nan nan nan nan nan
0.0 0.0 0.0 0.0 0.0 0.0 0.0 0.0 0.0 0.0 0.0 0.0 0.0 0.0 0.0 0.0 0.0 0.0 0.1 0.1 0.1 0.0 0.0 1.9 0.2 0.3 0.1 0.0 nan nan nan nan nan nan nan nan nan nan
0.0 0.0 0.0 0.0 nan nan 0.0 0.0 0.0 0.0 nan nan nan nan nan nan nan 0.4 1.1 1.8 2.6 0.2 0.1 0.8 0.5 0.5 0.4 0.4 0.3 nan nan nan nan nan nan nan nan nan
0.0 0.0 nan 0.0 nan nan 0.1 0.1 0.2 0.0 0.0 0.0 0.0 0.0 nan nan nan 0.0 0.4 2.5 1.4 1.2 0.1 1.3 0.1 0.7 1.8 0.4 0.4 0.3 0.2 nan nan nan nan nan nan 0.0
0.3 0.3 0.2 nan nan nan nan 0.1 0.2 0.0 0.0 0.1 0.0 0.0 0.0 0.0 0.0 0.0 0.0 0.5 1.6 0.9 0.0 1.3 0.8 0.9 1.7 0.8 0.4 0.3 0.4 0.5 0.3 0.2 nan nan nan 0.1
0.3 0.3 0.4 nan nan nan 0.2 nan nan 0.2 1.7 1.9 1.6 0.9 0.8 0.6 0.1 0.1 0.0 0.1 0.1 0.6 0.1 0.9 4.2 1.2 1.3 1.4 0.8 0.4 0.5 0.6 0.5 0.5 0.4 nan nan nan
0.8 0.7 nan nan nan 0.3 nan nan 0.0 2.1 3.2 4.7 2.4 1.2 0.7 0.2 0.0 0.3 0.1 0.1 0.1 0.1 0.1 0.7 1.8 0.5 1.4 1.8 2.1 1.3 1.4 0.5 0.6 0.8 0.7 0.5 0.4 0.3
0.1 0.8 0.0 0.7 0.0 0.3 0.8 1.1 1.6 2.1 2.8 2.9 1.8 0.7 0.5 0.9 1.4 1.0 2.4 1.6 2.1 1.8 0.4 0.4 0.9 1.2 2.8 1.1 0.9 1.2 0.6 2.7 0.6 0.8 1.1 0.9 0.6 0.5
1.8 2.8 1.8 1.4 1.4 1.1 1.3 1.3 1.2 1.4 2.5 2.8 3.0 2.2 1.8 1.8 2.2 1.3 1.8 2.0 3.4 1.6 1.6 1.0 0.4 0.6 0.8 0.7 3.1 0.8 0.8 0.8 1.2 1.3 1.1 0.9 0.6 0.6
2.9 4.0 6.3 6.8 4.1 1.7 2.3 1.9 1.6 1.5 1.4 2.0 2.9 2.0 2.6 3.5 3.5 3.1 3.1 3.4 3.5 2.2 1.5 0.9 2.0 2.6 2.1 1.6 1.1 1.3 0.9 2.3 0.8 0.5 0.7 1.7 0.6 0.7
5.4 4.1 8.4 9.7 5.1 1.9 2.0 2.1 3.3 2.8 1.6 3.3 4.1 5.1 5.4 4.2 4.6 3.7 4.2 3.5 3.2 2.1 1.8 2.0 3.1 3.7 4.7 8.4 1.6 nan 3.8 1.4 2.2 1.9 1.1 1.6 2.0 1.2
2.6 5.1 6.6 6.2 3.8 3.1 3.3 3.3 2.8 4.0 4.3 3.5 4.8 6.8 8.0 5.8 5.4 3.9 3.6 6.1 3.9 2.3 1.4 0.8 2.2 2.7 4.7 8.0 11.4 4.9 nan 2.7 2.5 3.1 2.1 1.1 1.0 nan
3.8 3.8 5.9 4.0 3.8 2.8 8.0 9.0 11.1 9.3 9.4 12.0 6.2 7.0 15.4 4.7 5.0 3.6 3.9 3.1 3.0 2.0 2.1 1.7 1.5 0.4 2.5 3.8 17.4 6.7 4.3 nan 0.9 1.4 1.3 2.0 1.3 1.2
5.2 3.2 3.3 3.6 5.8 4.8 10.2 16.2 14.0 13.5 9.6 7.1 14.1 19.2 17.0 7.8 7.6 6.7 8.3 8.2 2.8 3.2 1.8 1.2 1.4 2.1 2.7 2.8 3.3 8.5 2.9 2.3 nan nan nan nan 3.2 4.5
9.2 3.9 5.7 7.3 6.2 7.8 4.5 9.6 4.3 18.5 7.6 7.3 6.8 7.1 31.4 11.6 5.7 5.9 7.1 5.0 3.4 3.1 2.4 2.6 1.8 2.0 2.1 1.7 2.0 3.7 2.2 4.3 1.5 1.4 3.5 nan nan nan

GFSNE_prec_sndepth_084.txt.gz
Snowfall_Accumulation
0.0 0.0 0.0 0.0 0.0 0.0 0.0 0.0 0.0 0.2 0.0 0.0 0.0 0.0 0.0 0.0 0.0 0.0 0.0 nan nan nan nan nan nan nan nan nan nan nan nan nan nan nan nan nan nan nan
0.0 0.0 0.0 0.0 0.0 0.0 0.0 0.0 0.0 0.0 0.0 0.0 0.0 0.0 0.0 0.0 0.0 0.0 0.0 nan nan nan nan nan nan nan nan nan nan nan nan nan nan nan nan nan nan nan
0.0 0.0 0.0 0.0 0.0 0.0 0.0 0.0 0.0 0.0 0.0 0.0 0.0 0.0 0.0 0.0 0.0 0.0 0.0 0.0 0.0 nan nan nan nan nan nan nan nan nan nan nan nan nan nan nan nan nan
0.0 0.0 0.0 0.0 0.0 0.0 0.0 0.0 0.0 0.0 0.0 0.0 0.0 0.0 0.0 0.0 0.0 0.0 0.0 0.0 0.0 nan nan nan nan nan nan nan nan nan nan nan nan nan nan nan nan nan
0.0 0.0 0.0 0.0 0.0 0.0 0.0 0.0 0.0 0.0 0.0 0.0 0.0 0.0 0.0 0.0 0.0 0.0 0.0 0.0 0.0 nan nan nan nan nan nan nan nan nan nan nan nan nan nan nan nan nan
0.0 0.0 0.0 0.0 0.0 0.0 0.0 0.0 0.0 0.0 0.0 0.0 0.0 0.0 0.0 0.0 0.0 0.0 0.0 0.0 0.0 0.0 nan nan nan nan nan nan nan nan nan nan nan nan nan nan nan nan
0.0 0.0 0.0 nan nan nan 0.0 0.0 0.0 0.0 0.0 0.0 0.0 0.0 0.0 0.0 0.0 0.0 0.0 0.0 0.0 0.0 0.0 0.0 0.0 0.0 0.0 nan nan nan nan nan nan nan nan nan nan nan
0.0 0.0 0.0 0.0 0.0 nan nan nan nan 0.0 0.0 0.1 0.0 0.0 0.0 0.0 0.0 0.0 0.0 0.0 0.2 0.0 0.0 0.0 0.0 0.0 0.0 0.0 nan nan nan nan nan nan nan nan nan nan
0.0 0.0 0.0 0.0 nan 0.0 nan nan nan nan 0.0 0.0 0.0 0.0 0.0 0.0 0.0 0.0 0.0 0.0 0.1 0.0 0.0 0.3 0.0 0.0 0.0 0.0 nan nan nan nan nan nan nan nan nan nan
0.0 0.0 0.0 0.0 0.0 0.0 0.0 0.0 0.0 0.0 0.0 0.0 0.0 0.0 0.0 0.0 0.0 0.0 0.0 0.0 0.0 0.0 0.0 1.4 0.2 0.2 0.1 0.0 nan nan nan nan nan nan nan nan nan nan
0.0 0.0 0.0 0.0 nan nan 0.0 0.0 0.0 0.0 nan nan nan nan nan nan nan 0.3 0.9 1.3 2.0 0.1 0.0 0.6 0.4 0.4 0.3 0.3 0.2 nan nan nan nan nan nan nan nan nan
0.0 0.0 nan 0.0 nan nan 0.1 0.1 0.1 0.0 0.0 0.0 0.0 0.0 nan nan nan 0.0 0.3 2.0 1.1 1.0 0.1 1.0 0.1 0.5 1.4 0.3 0.3 0.2 0.2 nan nan nan nan nan nan 0.0
0.3 0.3 0.2 nan nan nan nan 0.1 0.1 0.0 0.0 0.1 0.0 0.0 0.0 0.0 0.0 0.0 0.0 0.4 1.3 0.7 0.0 1.0 0.6 0.7 1.3 0.6 0.3 0.3 0.3 0.4 0.3 0.2 nan nan nan 0.1
0.3 0.3 0.4 nan nan nan 0.2 nan nan 0.2 1.4 1.6 1.3 0.8 0.7 0.5 0.1 0.1 0.0 0.1 0.1 0.4 0.1 0.5 3.6 0.9 1.0 1.2 0.7 0.3 0.4 0.5 0.4 0.4 0.4 nan nan nan
0.8 0.6 nan nan nan 0.2 nan nan 0.0 1.7 2.6 4.1 2.2 1.1 0.6 0.2 0.0 0.2 0.0 0.0 0.1 0.1 0.1 0.5 1.6 0.3 1.2 1.6 1.7 1.0 1.1 0.4 0.5 0.6 0.6 0.4 0.3 0.2
0.1 0.7 0.0 0.6 0.0 0.2 0.6 0.9 1.3 1.8 2.4 2.5 1.6 0.7 0.5 0.8 1.2 0.9 2.1 1.4 2.0 1.6 0.3 0.3 0.6 0.8 2.5 1.0 0.8 1.0 0.5 2.3 0.5 0.7 0.9 0.7 0.5 0.4
1.3 2.3 1.5 1.1 1.2 0.9 1.1 1.1 1.0 1.2 2.2 2.7 2.9 2.1 1.8 1.7 2.1 1.2 1.7 1.8 3.3 1.5 1.5 0.8 0.2 0.3 0.6 0.4 2.8 0.6 0.6 0.7 1.0 1.0 0.9 0.8 0.5 0.5
2.4 3.4 5.5 6.0 3.6 1.5 2.2 1.8 1.5 1.4 1.4 1.9 2.8 2.0 2.5 3.4 3.3 2.9 2.9 3.2 3.4 2.1 1.4 0.8 1.7 2.2 1.6 1.2 1.0 1.2 0.8 1.9 0.7 0.4 0.6 1.4 0.5 0.6
4.7 3.6 8.3 9.6 5.0 1.8 2.0 2.1 3.2 2.7 1.5 3.2 4.0 5.0 5.3 4.1 4.5 3.6 4.0 3.3 3.1 2.0 1.7 1.7 2.8 3.4 4.6 8.2 1.3 nan 3.7 1.4 1.8 1.6 0.9 1.3 1.6 1.0
2.3 5.0 6.5 6.2 3.7 3.1 3.2 3.2 2.8 4.0 4.2 3.4 4.8 6.7 7.9 5.8 5.4 3.8 3.5 6.0 3.8 2.2 1.3 0.7 1.9 2.3 4.6 8.0 11.4 4.7 nan 3.2 2.6 2.5 1.7 0.9 0.8 nan
3.7 3.7 5.8 4.0 3.8 2.8 7.9 8.9 11.0 9.2 9.3 12.0 6.2 7.0 15.3 4.7 5.0 3.5 3.8 3.1 3.0 1.9 2.0 1.7 1.3 0.4 2.3 3.8 17.6 6.6 4.0 nan 1.4 1.1 1.0 1.6 1.1 1.0
5.1 3.2 3.3 3.6 5.7 4.7 10.1 16.0 13.9 13.4 9.5 7.0 13.9 19.1 16.9 7.8 7.6 6.6 8.3 8.2 2.8 3.2 1.8 1.1 1.2 1.8 2.6 2.9 3.4 8.7 3.4 2.6 nan nan nan nan 2.5 3.9
9.1 3.9 5.6 7.2 6.1 7.7 4.4 9.5 4.3 18.4 7.5 7.3 6.7 7.1 31.3 11.6 5.6 5.9 7.1 4.9 3.3 3.1 2.4 2.6 1.7 1.9 2.0 1.7 2.4 4.2 3.4 5.0 1.6 1.2 2.9 nan nan nan